GFSFLT2_prec_precacc24_033.txt.gz
Total_Precipitation_Accumulation
0.12 0.06 0.02 0.00 0.00 0.00 0.00 0.00 0.00 0.00 0.00 0.00 0.00 0.00 0.00 0.00 0.00 0.00 0.00 0.00 0.00 0.00 0.00 0.00 0.00 0.00 0.00 0.00 0.00 0.00 0.00 0.00
0.16 0.05 0.00 0.00 0.00 0.00 0.00 0.00 0.00 0.00 0.00 0.00 0.00 0.00 0.00 0.00 0.00 0.00 0.00 0.00 0.00 0.00 0.00 0.00 0.00 0.00 0.00 0.00 0.00 0.00 0.00 0.00
0.13 0.00 0.00 0.00 0.00 0.00 0.00 0.00 0.00 0.00 0.00 0.00 0.00 0.00 0.00 0.00 0.00 0.00 0.00 0.00 0.00 0.00 0.00 0.00 0.00 0.00 0.00 0.00 0.00 0.00 0.00 0.00
0.00 0.00 0.00 0.00 0.00 0.00 0.00 0.00 0.00 0.00 0.00 0.00 0.00 0.00 0.00 0.00 0.00 0.00 0.00 0.00 0.00 0.00 0.00 0.00 0.00 0.00 0.00 0.00 0.00 0.00 0.00 0.00
0.00 0.00 0.00 0.00 0.00 0.00 0.00 0.00 0.00 0.00 0.01 0.01 0.01 0.00 0.00 0.00 0.00 0.00 0.00 0.00 0.00 0.00 0.00 0.00 0.00 0.00 0.00 0.00 0.00 0.00 0.00 0.00
0.00 0.00 0.00 0.00 0.00 0.00 0.00 0.00 0.01 0.05 0.07 0.03 0.01 0.01 0.01 0.00 0.00 0.00 0.00 0.00 0.00 0.00 0.00 0.00 0.00 0.00 0.00 0.00 0.00 0.00 0.00 0.00
0.00 0.00 0.00 0.00 0.00 0.00 0.00 0.01 0.04 0.05 0.07 0.03 0.00 0.00 0.00 0.00 0.00 0.00 0.00 0.00 0.00 0.00 0.00 0.00 0.00 0.00 0.00 0.00 0.00 0.00 0.00 0.00
0.03 0.05 0.03 0.00 0.00 0.03 0.08 0.11 0.08 0.10 0.23 0.12 0.03 0.01 0.00 0.00 0.00 0.00 0.00 0.00 0.00 0.00 0.00 0.00 0.00 0.00 0.00 0.00 0.00 0.00 0.00 0.00
0.13 0.56 0.12 0.04 0.03 0.07 0.12 0.04 0.04 0.14 0.18 0.10 0.01 0.00 0.00 0.00 0.00 0.00 0.00 0.00 0.00 0.00 0.00 0.00 0.00 0.00 0.00 0.00 0.00 0.00 0.00 0.00
0.43 0.76 0.44 0.12 0.08 0.13 0.13 0.14 0.09 0.12 0.13 0.05 0.01 0.00 0.00 0.00 0.00 0.00 0.00 0.00 0.00 0.00 0.00 0.00 0.00 0.00 0.00 0.00 0.00 0.00 0.00 0.00
0.43 0.54 0.49 0.46 0.53 0.52 0.26 0.08 0.05 0.04 0.03 0.02 0.01 0.01 0.00 0.00 0.00 0.00 0.00 0.00 0.00 0.00 0.00 0.00 0.00 0.00 0.00 0.00 0.00 0.00 0.00 0.00
0.54 0.60 0.78 1.07 0.64 0.20 0.07 0.05 0.02 0.01 0.02 0.02 0.01 0.00 0.00 0.00 0.00 0.00 0.00 0.00 0.00 0.00 0.00 0.00 0.00 0.00 0.00 0.00 0.00 0.00 0.00 0.00
0.62 0.94 0.85 0.30 0.09 0.05 0.04 0.02 0.02 0.03 0.02 0.00 0.00 0.00 0.00 0.00 0.00 0.00 0.00 0.00 0.00 0.00 0.00 0.00 0.00 0.00 0.00 0.00 0.00 0.00 0.00 0.00
0.30 0.11 0.02 0.01 0.01 0.02 0.03 0.02 0.01 0.00 0.00 0.00 0.00 0.00 0.00 0.00 0.00 0.00 0.00 0.00 0.00 0.00 0.00 0.00 0.00 0.00 0.00 0.00 0.00 0.00 0.00 0.00
0.03 0.02 0.01 0.00 0.01 0.01 0.00 0.00 0.00 0.00 0.00 0.00 0.00 0.00 0.00 0.00 0.00 0.00 0.00 0.00 0.00 0.00 0.00 0.00 0.00 0.00 0.00 0.00 0.00 0.00 0.00 0.00
0.00 0.00 0.00 0.00 0.00 0.00 0.00 0.00 0.00 0.00 0.00 0.00 0.00 0.00 0.00 0.00 0.00 0.00 0.00 0.00 0.00 0.00 0.00 0.00 0.00 0.00 0.00 0.00 0.00 0.00 0.01 0.01
0.00 0.00 0.00 0.00 0.00 0.00 0.00 0.00 0.00 0.00 0.00 0.00 0.00 0.00 0.00 0.00 0.00 0.00 0.00 0.00 0.00 0.00 0.00 0.00 0.00 0.00 0.00 0.00 0.00 0.00 0.00 0.02
0.00 0.00 0.00 0.00 0.00 0.00 0.00 0.00 0.00 0.00 0.00 0.00 0.00 0.00 0.01 0.00 0.00 0.00 0.00 0.00 0.00 0.00 0.00 0.00 0.00 0.00 0.00 0.00 0.00 0.01 0.02 0.04
0.00 0.00 0.00 0.00 0.00 0.00 0.00 0.00 0.00 0.00 0.00 0.00 0.00 0.00 0.00 0.00 0.00 0.00 0.00 0.00 0.00 0.00 0.00 0.01 0.01 0.02 0.02 0.01 0.01 0.00 0.01 0.03
0.00 0.00 0.00 0.00 0.00 0.00 0.00 0.00 0.00 0.00 0.00 0.00 0.00 0.00 0.00 0.00 0.00 0.00 0.00 0.00 0.00 0.00 0.01 0.02 0.03 0.03 0.02 0.02 0.02 0.01 0.03 0.07

GFSFLT2_prec_precacc24_036.txt.gz
Total_Precipitation_Accumulation
0.65 0.15 0.04 0.00 0.00 0.00 0.00 0.00 0.00 0.00 0.00 0.00 0.00 0.00 0.00 0.00 0.00 0.00 0.00 0.00 0.00 0.00 0.00 0.00 0.00 0.00 0.00 0.00 0.00 0.00 0.00 0.00
0.54 0.11 0.00 0.00 0.00 0.00 0.00 0.00 0.00 0.00 0.00 0.00 0.00 0.00 0.00 0.00 0.00 0.00 0.00 0.00 0.00 0.00 0.00 0.00 0.00 0.00 0.00 0.00 0.00 0.00 0.00 0.00
0.43 0.02 0.00 0.00 0.00 0.00 0.00 0.00 0.00 0.00 0.00 0.00 0.00 0.00 0.00 0.00 0.00 0.00 0.00 0.00 0.00 0.00 0.00 0.00 0.00 0.00 0.00 0.00 0.00 0.00 0.00 0.00
0.08 0.01 0.00 0.00 0.00 0.00 0.00 0.00 0.00 0.00 0.00 0.00 0.02 0.01 0.00 0.00 0.00 0.00 0.00 0.00 0.00 0.00 0.00 0.00 0.00 0.00 0.00 0.00 0.00 0.00 0.00 0.00
0.01 0.00 0.00 0.00 0.00 0.00 0.00 0.00 0.00 0.00 0.02 0.03 0.03 0.00 0.01 0.02 0.00 0.00 0.00 0.00 0.00 0.00 0.00 0.00 0.00 0.00 0.00 0.00 0.00 0.00 0.00 0.00
0.00 0.00 0.00 0.00 0.00 0.00 0.00 0.01 0.04 0.06 0.07 0.03 0.01 0.02 0.02 0.00 0.00 0.00 0.00 0.00 0.00 0.00 0.00 0.00 0.00 0.00 0.00 0.00 0.00 0.00 0.00 0.00
0.00 0.00 0.00 0.00 0.00 0.00 0.01 0.07 0.06 0.09 0.08 0.03 0.00 0.00 0.00 0.00 0.00 0.00 0.00 0.00 0.00 0.00 0.00 0.00 0.00 0.00 0.00 0.00 0.00 0.00 0.00 0.00
0.03 0.05 0.03 0.00 0.01 0.06 0.12 0.17 0.13 0.14 0.24 0.13 0.03 0.01 0.00 0.00 0.00 0.00 0.00 0.00 0.00 0.00 0.00 0.00 0.00 0.00 0.00 0.00 0.00 0.00 0.00 0.00
0.12 0.55 0.12 0.05 0.03 0.07 0.13 0.04 0.04 0.14 0.18 0.10 0.01 0.00 0.00 0.00 0.00 0.00 0.00 0.00 0.00 0.00 0.00 0.00 0.00 0.00 0.00 0.00 0.00 0.00 0.00 0.00
0.34 0.75 0.44 0.12 0.08 0.13 0.13 0.14 0.09 0.12 0.13 0.05 0.01 0.01 0.00 0.00 0.00 0.00 0.00 0.00 0.00 0.00 0.00 0.00 0.00 0.00 0.00 0.00 0.00 0.00 0.00 0.00
0.43 0.54 0.52 0.52 0.56 0.53 0.26 0.09 0.05 0.04 0.03 0.02 0.01 0.01 0.00 0.00 0.00 0.00 0.00 0.00 0.00 0.00 0.00 0.00 0.00 0.00 0.00 0.00 0.00 0.00 0.00 0.00
0.54 0.57 0.82 1.13 0.66 0.20 0.07 0.05 0.02 0.01 0.02 0.02 0.01 0.00 0.00 0.00 0.00 0.00 0.00 0.00 0.00 0.00 0.00 0.00 0.00 0.00 0.00 0.00 0.00 0.00 0.00 0.00
0.61 0.88 0.83 0.31 0.09 0.06 0.04 0.02 0.02 0.03 0.02 0.00 0.00 0.00 0.00 0.00 0.00 0.00 0.00 0.00 0.00 0.00 0.00 0.00 0.00 0.00 0.00 0.00 0.00 0.00 0.00 0.00
0.29 0.13 0.03 0.01 0.01 0.02 0.03 0.02 0.01 0.00 0.00 0.00 0.00 0.00 0.00 0.00 0.00 0.00 0.00 0.00 0.00 0.00 0.00 0.00 0.00 0.00 0.00 0.00 0.00 0.00 0.00 0.00
0.04 0.05 0.02 0.00 0.01 0.01 0.00 0.00 0.00 0.00 0.00 0.00 0.00 0.00 0.00 0.00 0.00 0.00 0.00 0.00 0.00 0.00 0.00 0.00 0.00 0.00 0.00 0.00 0.00 0.00 0.00 0.00
0.02 0.03 0.00 0.00 0.00 0.00 0.00 0.00 0.00 0.00 0.00 0.00 0.00 0.00 0.00 0.00 0.00 0.00 0.00 0.00 0.00 0.00 0.00 0.00 0.00 0.00 0.00 0.00 0.00 0.00 0.01 0.01
0.01 0.00 0.04 0.01 0.00 0.00 0.00 0.00 0.00 0.00 0.00 0.00 0.00 0.00 0.00 0.00 0.00 0.00 0.00 0.00 0.00 0.00 0.00 0.00 0.00 0.00 0.00 0.00 0.00 0.00 0.00 0.02
0.02 0.04 0.02 0.00 0.00 0.00 0.00 0.00 0.00 0.00 0.00 0.00 0.00 0.00 0.01 0.00 0.00 0.00 0.00 0.00 0.00 0.00 0.00 0.00 0.00 0.00 0.00 0.00 0.00 0.01 0.02 0.04
0.00 0.00 0.00 0.00 0.00 0.00 0.00 0.00 0.00 0.00 0.00 0.00 0.00 0.00 0.00 0.00 0.00 0.00 0.00 0.00 0.00 0.00 0.00 0.01 0.01 0.03 0.03 0.02 0.01 0.00 0.00 0.02
0.00 0.00 0.00 0.00 0.00 0.00 0.00 0.00 0.00 0.00 0.00 0.00 0.00 0.00 0.00 0.00 0.00 0.00 0.00 0.00 0.00 0.00 0.01 0.02 0.03 0.04 0.03 0.03 0.01 0.01 0.02 0.06

GFSFLT2_prec_precacc24_042.txt.gz
Total_Precipitation_Accumulation
1.74 0.65 0.23 0.02 0.00 0.00 0.00 0.00 0.00 0.00 0.00 0.00 0.00 0.00 0.00 0.00 0.00 0.00 0.00 0.00 0.00 0.00 0.00 0.00 0.00 0.00 0.00 0.00 0.00 0.00 0.00 0.00
1.46 0.71 0.13 0.01 0.00 0.00 0.00 0.00 0.00 0.00 0.00 0.00 0.00 0.00 0.00 0.00 0.00 0.00 0.00 0.00 0.00 0.00 0.00 0.00 0.00 0.00 0.00 0.00 0.00 0.00 0.00 0.00
1.18 0.41 0.03 0.00 0.00 0.00 0.00 0.00 0.00 0.00 0.00 0.00 0.00 0.00 0.00 0.00 0.00 0.00 0.00 0.00 0.00 0.00 0.00 0.00 0.00 0.00 0.00 0.00 0.00 0.00 0.00 0.00
0.43 0.16 0.00 0.00 0.00 0.00 0.00 0.00 0.00 0.00 0.00 0.00 0.02 0.01 0.00 0.00 0.00 0.00 0.00 0.00 0.00 0.00 0.00 0.00 0.00 0.00 0.00 0.00 0.00 0.00 0.00 0.00
0.13 0.03 0.00 0.00 0.00 0.00 0.00 0.00 0.00 0.00 0.02 0.03 0.03 0.00 0.01 0.02 0.00 0.00 0.00 0.00 0.00 0.00 0.00 0.00 0.00 0.00 0.00 0.00 0.00 0.00 0.00 0.00
0.05 0.00 0.00 0.00 0.00 0.00 0.00 0.01 0.04 0.06 0.07 0.03 0.01 0.02 0.04 0.00 0.00 0.00 0.00 0.00 0.00 0.00 0.00 0.00 0.00 0.00 0.00 0.00 0.00 0.00 0.00 0.00
0.01 0.00 0.00 0.00 0.00 0.00 0.01 0.08 0.07 0.09 0.08 0.03 0.00 0.00 0.00 0.00 0.00 0.00 0.00 0.00 0.00 0.00 0.00 0.00 0.00 0.00 0.00 0.00 0.00 0.00 0.00 0.00
0.01 0.01 0.00 0.00 0.01 0.06 0.12 0.17 0.14 0.15 0.25 0.14 0.04 0.02 0.01 0.00 0.00 0.00 0.00 0.00 0.00 0.00 0.00 0.00 0.00 0.00 0.00 0.00 0.00 0.00 0.00 0.00
0.02 0.13 0.04 0.01 0.03 0.07 0.13 0.04 0.05 0.14 0.18 0.10 0.01 0.00 0.00 0.00 0.00 0.00 0.00 0.00 0.00 0.00 0.00 0.00 0.00 0.00 0.00 0.00 0.00 0.00 0.00 0.00
0.15 0.35 0.23 0.08 0.05 0.12 0.13 0.14 0.09 0.12 0.13 0.05 0.01 0.01 0.00 0.00 0.00 0.00 0.00 0.00 0.00 0.00 0.00 0.00 0.00 0.00 0.00 0.00 0.00 0.00 0.00 0.00
0.31 0.38 0.45 0.50 0.54 0.52 0.26 0.09 0.05 0.04 0.03 0.02 0.01 0.01 0.00 0.00 0.00 0.00 0.00 0.00 0.00 0.00 0.00 0.00 0.00 0.00 0.00 0.00 0.00 0.00 0.00 0.00
0.43 0.46 0.77 1.14 0.67 0.22 0.07 0.05 0.02 0.01 0.02 0.02 0.01 0.00 0.00 0.00 0.00 0.00 0.00 0.00 0.00 0.00 0.00 0.00 0.00 0.00 0.00 0.00 0.00 0.00 0.00 0.00
0.53 0.74 0.84 0.32 0.10 0.07 0.04 0.02 0.02 0.03 0.02 0.00 0.00 0.00 0.00 0.00 0.00 0.00 0.00 0.00 0.00 0.00 0.00 0.00 0.00 0.00 0.00 0.00 0.00 0.00 0.00 0.00
0.22 0.11 0.11 0.02 0.01 0.02 0.02 0.02 0.01 0.00 0.00 0.00 0.00 0.00 0.00 0.00 0.00 0.00 0.00 0.00 0.00 0.00 0.00 0.00 0.00 0.00 0.00 0.00 0.00 0.00 0.00 0.00
0.05 0.07 0.13 0.04 0.01 0.01 0.00 0.00 0.00 0.00 0.00 0.00 0.00 0.00 0.00 0.00 0.00 0.00 0.00 0.00 0.00 0.00 0.00 0.00 0.00 0.00 0.00 0.00 0.00 0.00 0.00 0.00
0.06 0.10 0.14 0.04 0.01 0.00 0.00 0.00 0.00 0.00 0.00 0.00 0.00 0.00 0.00 0.00 0.00 0.00 0.00 0.00 0.00 0.00 0.00 0.00 0.00 0.00 0.00 0.00 0.00 0.00 0.01 0.01
0.08 0.06 0.09 0.05 0.00 0.00 0.00 0.00 0.00 0.00 0.00 0.00 0.00 0.00 0.00 0.00 0.00 0.00 0.00 0.00 0.00 0.00 0.00 0.00 0.00 0.00 0.00 0.00 0.00 0.00 0.00 0.02
0.06 0.07 0.05 0.01 0.00 0.00 0.00 0.00 0.00 0.00 0.00 0.00 0.00 0.00 0.01 0.00 0.00 0.00 0.00 0.00 0.00 0.00 0.00 0.00 0.00 0.00 0.00 0.00 0.00 0.00 0.01 0.02
0.03 0.01 0.00 0.00 0.00 0.00 0.00 0.00 0.00 0.00 0.00 0.00 0.00 0.00 0.00 0.00 0.00 0.00 0.00 0.00 0.00 0.00 0.00 0.01 0.01 0.03 0.03 0.02 0.01 0.00 0.00 0.01
0.01 0.01 0.00 0.00 0.00 0.00 0.00 0.00 0.00 0.00 0.00 0.00 0.00 0.00 0.00 0.00 0.00 0.00 0.00 0.00 0.00 0.00 0.01 0.02 0.03 0.04 0.03 0.02 0.01 0.01 0.01 0.04

GFSFLT2_prec_precacc24_045.txt.gz
Total_Precipitation_Accumulation
2.43 1.08 0.38 0.04 0.00 0.00 0.00 0.00 0.00 0.00 0.00 0.00 0.00 0.00 0.00 0.00 0.00 0.00 0.00 0.00 0.00 0.00 0.00 0.00 0.00 0.00 0.00 0.00 0.00 0.00 0.00 0.00
2.28 1.01 0.19 0.03 0.00 0.00 0.00 0.00 0.00 0.00 0.00 0.00 0.00 0.00 0.00 0.00 0.00 0.00 0.00 0.00 0.00 0.00 0.00 0.00 0.00 0.00 0.00 0.00 0.00 0.00 0.00 0.00
1.43 0.49 0.05 0.01 0.00 0.00 0.00 0.00 0.00 0.00 0.00 0.00 0.00 0.00 0.00 0.00 0.00 0.00 0.00 0.00 0.00 0.00 0.00 0.00 0.00 0.00 0.00 0.00 0.00 0.00 0.00 0.00
0.59 0.23 0.02 0.00 0.00 0.00 0.00 0.00 0.00 0.00 0.00 0.00 0.02 0.01 0.00 0.00 0.00 0.00 0.00 0.00 0.00 0.00 0.00 0.00 0.00 0.00 0.00 0.00 0.00 0.00 0.00 0.00
0.27 0.06 0.00 0.00 0.00 0.00 0.00 0.00 0.00 0.00 0.02 0.03 0.03 0.00 0.01 0.02 0.00 0.00 0.00 0.00 0.00 0.00 0.00 0.00 0.00 0.00 0.00 0.00 0.00 0.00 0.00 0.00
0.10 0.00 0.00 0.00 0.00 0.00 0.00 0.01 0.04 0.06 0.07 0.03 0.01 0.02 0.04 0.00 0.00 0.00 0.00 0.00 0.00 0.00 0.00 0.00 0.00 0.00 0.00 0.00 0.00 0.00 0.00 0.00
0.04 0.00 0.00 0.00 0.00 0.00 0.01 0.08 0.07 0.09 0.08 0.03 0.00 0.00 0.00 0.00 0.00 0.00 0.00 0.00 0.00 0.00 0.00 0.00 0.00 0.00 0.00 0.00 0.00 0.00 0.00 0.00
0.01 0.00 0.00 0.00 0.01 0.06 0.12 0.17 0.14 0.15 0.26 0.14 0.04 0.02 0.01 0.00 0.00 0.00 0.00 0.00 0.00 0.00 0.00 0.00 0.00 0.00 0.00 0.00 0.00 0.00 0.00 0.00
0.02 0.12 0.02 0.01 0.03 0.07 0.13 0.04 0.05 0.15 0.18 0.10 0.01 0.00 0.00 0.00 0.00 0.00 0.00 0.00 0.00 0.00 0.00 0.00 0.00 0.00 0.00 0.00 0.00 0.00 0.00 0.00
0.07 0.24 0.15 0.07 0.05 0.12 0.13 0.16 0.10 0.13 0.13 0.05 0.01 0.01 0.00 0.00 0.00 0.00 0.00 0.00 0.00 0.00 0.00 0.00 0.00 0.00 0.00 0.00 0.00 0.00 0.00 0.00
0.14 0.19 0.33 0.45 0.53 0.51 0.26 0.09 0.05 0.05 0.03 0.02 0.01 0.01 0.00 0.00 0.00 0.00 0.00 0.00 0.00 0.00 0.00 0.00 0.00 0.00 0.00 0.00 0.00 0.00 0.00 0.00
0.18 0.24 0.64 1.11 0.66 0.21 0.08 0.08 0.03 0.01 0.02 0.02 0.01 0.00 0.00 0.00 0.00 0.00 0.00 0.00 0.00 0.00 0.00 0.00 0.00 0.00 0.00 0.00 0.00 0.00 0.00 0.00
0.32 0.59 0.77 0.31 0.09 0.07 0.04 0.02 0.01 0.02 0.02 0.00 0.00 0.00 0.00 0.00 0.00 0.00 0.00 0.00 0.00 0.00 0.00 0.00 0.00 0.00 0.00 0.00 0.00 0.00 0.00 0.00
0.18 0.10 0.11 0.02 0.02 0.03 0.01 0.01 0.00 0.00 0.00 0.00 0.00 0.00 0.00 0.00 0.00 0.00 0.00 0.00 0.00 0.00 0.00 0.00 0.00 0.00 0.00 0.00 0.00 0.00 0.00 0.00
0.06 0.08 0.13 0.04 0.01 0.01 0.00 0.00 0.00 0.00 0.00 0.00 0.00 0.00 0.00 0.00 0.00 0.00 0.00 0.00 0.00 0.00 0.00 0.00 0.00 0.00 0.00 0.00 0.00 0.00 0.00 0.00
0.06 0.11 0.14 0.04 0.01 0.00 0.00 0.01 0.03 0.01 0.00 0.00 0.00 0.00 0.00 0.00 0.00 0.00 0.00 0.00 0.00 0.00 0.00 0.00 0.00 0.00 0.00 0.00 0.00 0.00 0.01 0.00
0.08 0.09 0.14 0.08 0.01 0.05 0.06 0.04 0.01 0.00 0.00 0.00 0.00 0.00 0.00 0.00 0.00 0.00 0.00 0.00 0.00 0.00 0.00 0.00 0.00 0.00 0.00 0.00 0.00 0.00 0.00 0.02
0.09 0.12 0.13 0.03 0.02 0.02 0.06 0.03 0.01 0.01 0.00 0.00 0.00 0.00 0.00 0.00 0.00 0.00 0.00 0.00 0.00 0.00 0.00 0.00 0.00 0.00 0.00 0.00 0.00 0.00 0.00 0.01
0.07 0.06 0.06 0.02 0.01 0.01 0.02 0.02 0.01 0.01 0.00 0.00 0.00 0.00 0.00 0.00 0.00 0.00 0.00 0.00 0.00 0.00 0.00 0.01 0.01 0.03 0.03 0.02 0.01 0.00 0.00 0.00
0.11 0.09 0.06 0.02 0.01 0.01 0.02 0.01 0.00 0.00 0.00 0.00 0.00 0.00 0.00 0.00 0.00 0.01 0.01 0.00 0.00 0.00 0.01 0.02 0.03 0.04 0.03 0.02 0.01 0.01 0.00 0.00

GFSFLT2_prec_precacc24_048.txt.gz
Total_Precipitation_Accumulation
3.51 1.30 0.48 0.07 0.00 0.00 0.00 0.00 0.00 0.00 0.00 0.00 0.00 0.00 0.00 0.00 0.00 0.00 0.00 0.00 0.00 0.00 0.00 0.00 0.00 0.00 0.00 0.00 0.00 0.00 0.00 0.00
2.80 1.36 0.28 0.04 0.00 0.00 0.00 0.00 0.00 0.00 0.00 0.00 0.00 0.00 0.00 0.00 0.00 0.00 0.00 0.00 0.00 0.00 0.00 0.00 0.00 0.00 0.00 0.00 0.00 0.00 0.00 0.00
2.08 0.83 0.14 0.01 0.00 0.00 0.00 0.00 0.00 0.00 0.00 0.00 0.00 0.00 0.00 0.00 0.00 0.00 0.00 0.00 0.00 0.00 0.00 0.00 0.00 0.00 0.00 0.00 0.00 0.00 0.00 0.00
0.65 0.26 0.04 0.01 0.00 0.00 0.00 0.00 0.00 0.00 0.00 0.00 0.02 0.01 0.00 0.00 0.00 0.00 0.00 0.00 0.00 0.00 0.00 0.00 0.00 0.00 0.00 0.00 0.00 0.00 0.00 0.00
0.41 0.14 0.05 0.01 0.00 0.00 0.00 0.00 0.00 0.00 0.02 0.03 0.03 0.00 0.01 0.02 0.00 0.00 0.00 0.00 0.00 0.00 0.00 0.00 0.00 0.00 0.00 0.00 0.00 0.00 0.00 0.00
0.17 0.06 0.03 0.00 0.00 0.00 0.00 0.01 0.04 0.06 0.07 0.03 0.01 0.02 0.04 0.00 0.00 0.00 0.00 0.00 0.00 0.00 0.00 0.00 0.00 0.00 0.00 0.00 0.00 0.00 0.00 0.00
0.05 0.01 0.00 0.00 0.00 0.00 0.01 0.08 0.07 0.09 0.08 0.03 0.00 0.00 0.00 0.00 0.00 0.00 0.00 0.00 0.00 0.00 0.00 0.00 0.00 0.00 0.00 0.00 0.00 0.00 0.00 0.00
0.00 0.00 0.00 0.00 0.01 0.06 0.12 0.17 0.14 0.15 0.26 0.14 0.04 0.02 0.01 0.00 0.00 0.00 0.00 0.00 0.00 0.00 0.00 0.00 0.00 0.00 0.00 0.00 0.00 0.00 0.00 0.00
0.02 0.06 0.01 0.01 0.03 0.06 0.10 0.04 0.04 0.15 0.20 0.13 0.02 0.00 0.02 0.00 0.00 0.00 0.00 0.00 0.00 0.00 0.00 0.00 0.00 0.00 0.00 0.00 0.00 0.00 0.00 0.00
0.02 0.11 0.10 0.06 0.03 0.08 0.11 0.14 0.10 0.16 0.15 0.07 0.04 0.03 0.03 0.01 0.00 0.00 0.00 0.00 0.00 0.00 0.00 0.00 0.00 0.00 0.00 0.00 0.00 0.00 0.00 0.00
0.05 0.08 0.29 0.36 0.36 0.41 0.25 0.09 0.09 0.16 0.07 0.02 0.02 0.01 0.00 0.00 0.00 0.00 0.00 0.00 0.00 0.00 0.00 0.00 0.00 0.00 0.00 0.00 0.00 0.00 0.00 0.00
0.06 0.13 0.43 0.77 0.59 0.19 0.06 0.08 0.08 0.08 0.04 0.01 0.01 0.00 0.00 0.00 0.00 0.00 0.00 0.00 0.00 0.00 0.00 0.00 0.00 0.00 0.00 0.00 0.00 0.00 0.00 0.00
0.12 0.37 0.59 0.28 0.07 0.04 0.03 0.05 0.11 0.10 0.03 0.00 0.00 0.00 0.00 0.00 0.00 0.00 0.00 0.00 0.00 0.00 0.00 0.00 0.00 0.00 0.00 0.00 0.00 0.00 0.00 0.00
0.09 0.08 0.11 0.02 0.02 0.03 0.02 0.03 0.08 0.07 0.01 0.00 0.00 0.00 0.00 0.00 0.00 0.00 0.00 0.00 0.00 0.00 0.00 0.00 0.00 0.00 0.00 0.00 0.00 0.00 0.00 0.00
0.06 0.08 0.13 0.04 0.01 0.00 0.00 0.05 0.08 0.04 0.01 0.00 0.00 0.00 0.00 0.00 0.00 0.00 0.00 0.00 0.00 0.00 0.00 0.00 0.00 0.00 0.00 0.00 0.00 0.00 0.00 0.00
0.06 0.11 0.14 0.04 0.01 0.00 0.01 0.05 0.07 0.05 0.01 0.00 0.00 0.00 0.00 0.00 0.00 0.00 0.00 0.00 0.00 0.00 0.00 0.00 0.00 0.00 0.00 0.00 0.00 0.00 0.00 0.00
0.08 0.11 0.15 0.08 0.01 0.06 0.12 0.13 0.11 0.04 0.01 0.01 0.00 0.00 0.00 0.00 0.00 0.00 0.00 0.00 0.00 0.00 0.00 0.00 0.00 0.00 0.00 0.00 0.00 0.00 0.00 0.01
0.10 0.12 0.19 0.09 0.02 0.03 0.11 0.15 0.09 0.05 0.02 0.00 0.00 0.00 0.00 0.00 0.00 0.00 0.00 0.00 0.00 0.00 0.01 0.00 0.00 0.00 0.00 0.00 0.00 0.00 0.00 0.00
0.08 0.07 0.09 0.08 0.06 0.01 0.02 0.09 0.10 0.06 0.02 0.00 0.00 0.00 0.00 0.00 0.00 0.00 0.00 0.01 0.03 0.02 0.01 0.01 0.01 0.03 0.03 0.02 0.01 0.00 0.00 0.00
0.12 0.11 0.11 0.06 0.06 0.05 0.06 0.10 0.10 0.07 0.04 0.00 0.00 0.00 0.00 0.01 0.01 0.03 0.04 0.03 0.01 0.01 0.01 0.02 0.03 0.04 0.03 0.02 0.01 0.01 0.00 0.00

GFSFLT2_prec_precacc24_054.txt.gz
Total_Precipitation_Accumulation
4.97 1.70 0.68 0.19 0.04 0.00 0.00 0.00 0.00 0.00 0.00 0.00 0.00 0.00 0.00 0.00 0.00 0.00 0.00 0.00 0.00 0.00 0.00 0.00 0.00 0.00 0.00 0.00 0.00 0.00 0.00 0.00
4.27 2.40 0.77 0.24 0.08 0.03 0.00 0.00 0.00 0.00 0.00 0.00 0.00 0.00 0.00 0.00 0.00 0.00 0.00 0.00 0.00 0.00 0.00 0.00 0.00 0.00 0.00 0.00 0.00 0.00 0.00 0.00
2.65 1.28 0.40 0.22 0.17 0.11 0.01 0.00 0.00 0.00 0.00 0.00 0.00 0.00 0.00 0.00 0.00 0.00 0.00 0.00 0.00 0.00 0.00 0.00 0.00 0.00 0.00 0.00 0.00 0.00 0.00 0.00
1.05 0.56 0.18 0.08 0.16 0.23 0.17 0.03 0.00 0.00 0.00 0.00 0.02 0.01 0.00 0.00 0.00 0.00 0.00 0.00 0.00 0.00 0.00 0.00 0.00 0.00 0.00 0.00 0.00 0.00 0.00 0.00
0.59 0.42 0.23 0.10 0.08 0.14 0.13 0.04 0.00 0.00 0.02 0.03 0.03 0.00 0.01 0.02 0.00 0.00 0.00 0.00 0.00 0.00 0.00 0.00 0.00 0.00 0.00 0.00 0.00 0.00 0.00 0.00
0.24 0.19 0.23 0.27 0.07 0.05 0.05 0.02 0.04 0.05 0.06 0.03 0.01 0.01 0.04 0.00 0.00 0.00 0.00 0.00 0.00 0.00 0.00 0.00 0.00 0.00 0.00 0.00 0.00 0.00 0.00 0.00
0.13 0.06 0.04 0.04 0.03 0.03 0.02 0.08 0.06 0.07 0.05 0.02 0.00 0.00 0.00 0.00 0.00 0.00 0.00 0.00 0.00 0.00 0.00 0.00 0.00 0.00 0.00 0.00 0.00 0.00 0.00 0.00
0.04 0.02 0.02 0.01 0.02 0.06 0.08 0.09 0.06 0.05 0.03 0.04 0.02 0.02 0.01 0.00 0.00 0.00 0.00 0.00 0.00 0.00 0.00 0.00 0.00 0.00 0.00 0.00 0.00 0.00 0.00 0.00
0.00 0.00 0.01 0.03 0.06 0.03 0.01 0.00 0.00 0.01 0.05 0.11 0.05 0.01 0.04 0.02 0.00 0.00 0.00 0.00 0.00 0.00 0.00 0.00 0.00 0.00 0.00 0.00 0.00 0.00 0.00 0.00
0.00 0.00 0.00 0.04 0.02 0.00 0.02 0.07 0.02 0.05 0.08 0.13 0.14 0.11 0.09 0.04 0.01 0.00 0.00 0.00 0.00 0.00 0.00 0.00 0.00 0.00 0.00 0.00 0.00 0.00 0.00 0.00
0.00 0.00 0.12 0.17 0.08 0.08 0.09 0.04 0.05 0.15 0.15 0.15 0.08 0.07 0.08 0.04 0.02 0.00 0.00 0.00 0.00 0.00 0.00 0.00 0.00 0.00 0.00 0.00 0.00 0.00 0.00 0.00
0.00 0.01 0.17 0.15 0.08 0.05 0.02 0.04 0.06 0.13 0.10 0.08 0.06 0.04 0.04 0.01 0.01 0.00 0.00 0.00 0.00 0.00 0.00 0.00 0.00 0.00 0.00 0.00 0.00 0.00 0.00 0.00
0.00 0.03 0.10 0.05 0.01 0.02 0.01 0.04 0.11 0.18 0.15 0.14 0.12 0.03 0.02 0.00 0.00 0.00 0.00 0.00 0.00 0.00 0.00 0.00 0.00 0.00 0.00 0.00 0.00 0.00 0.00 0.00
0.02 0.03 0.09 0.01 0.01 0.03 0.02 0.03 0.10 0.17 0.14 0.11 0.17 0.10 0.02 0.00 0.00 0.00 0.00 0.00 0.00 0.00 0.00 0.00 0.00 0.00 0.00 0.00 0.00 0.00 0.00 0.00
0.06 0.08 0.13 0.04 0.01 0.00 0.00 0.06 0.12 0.10 0.17 0.17 0.15 0.09 0.04 0.00 0.00 0.00 0.00 0.00 0.00 0.00 0.00 0.00 0.00 0.00 0.00 0.00 0.00 0.00 0.00 0.00
0.06 0.11 0.14 0.04 0.01 0.00 0.01 0.06 0.08 0.16 0.17 0.13 0.09 0.04 0.02 0.00 0.00 0.00 0.00 0.00 0.00 0.00 0.00 0.00 0.00 0.00 0.00 0.00 0.00 0.00 0.00 0.00
0.08 0.11 0.15 0.08 0.01 0.06 0.12 0.14 0.15 0.16 0.13 0.10 0.07 0.05 0.02 0.00 0.00 0.00 0.00 0.00 0.00 0.00 0.00 0.00 0.01 0.00 0.00 0.00 0.00 0.00 0.00 0.00
0.10 0.12 0.19 0.09 0.06 0.07 0.13 0.17 0.13 0.09 0.07 0.06 0.05 0.05 0.03 0.01 0.00 0.00 0.00 0.00 0.00 0.01 0.04 0.03 0.01 0.00 0.00 0.00 0.00 0.00 0.00 0.00
0.08 0.07 0.09 0.09 0.12 0.06 0.04 0.12 0.15 0.12 0.09 0.06 0.06 0.05 0.03 0.02 0.01 0.00 0.00 0.02 0.05 0.04 0.01 0.00 0.01 0.02 0.03 0.02 0.01 0.00 0.00 0.00
0.12 0.11 0.11 0.07 0.11 0.16 0.18 0.16 0.17 0.18 0.19 0.13 0.08 0.08 0.10 0.05 0.02 0.06 0.06 0.04 0.01 0.01 0.00 0.01 0.02 0.04 0.03 0.02 0.01 0.01 0.00 0.00

GFSFLT2_prec_precacc24_060.txt.gz
Total_Precipitation_Accumulation
6.93 2.66 1.13 0.62 0.47 0.08 0.01 0.02 0.01 0.00 0.00 0.00 0.00 0.00 0.00 0.00 0.00 0.00 0.00 0.00 0.00 0.00 0.00 0.00 0.00 0.00 0.00 0.00 0.00 0.00 0.00 0.00
5.33 3.56 2.02 1.12 0.76 0.26 0.09 0.06 0.04 0.00 0.00 0.00 0.00 0.00 0.00 0.00 0.00 0.00 0.00 0.00 0.00 0.00 0.00 0.00 0.00 0.00 0.00 0.00 0.00 0.00 0.00 0.00
2.66 1.85 1.03 0.90 0.69 0.48 0.27 0.17 0.04 0.00 0.00 0.00 0.00 0.00 0.00 0.00 0.00 0.00 0.00 0.00 0.00 0.00 0.00 0.00 0.00 0.00 0.00 0.00 0.00 0.00 0.00 0.00
1.06 0.62 0.23 0.15 0.28 0.31 0.27 0.16 0.09 0.01 0.00 0.00 0.00 0.00 0.00 0.00 0.00 0.00 0.00 0.00 0.00 0.00 0.00 0.00 0.00 0.00 0.00 0.00 0.00 0.00 0.00 0.00
0.70 0.48 0.26 0.15 0.14 0.18 0.21 0.13 0.06 0.01 0.00 0.00 0.00 0.00 0.00 0.00 0.00 0.00 0.00 0.00 0.00 0.00 0.00 0.00 0.00 0.00 0.00 0.00 0.00 0.00 0.00 0.00
0.29 0.32 0.32 0.44 0.30 0.21 0.17 0.11 0.03 0.01 0.01 0.01 0.00 0.00 0.01 0.00 0.00 0.00 0.00 0.00 0.00 0.00 0.00 0.00 0.00 0.00 0.00 0.00 0.00 0.00 0.00 0.00
0.23 0.13 0.17 0.18 0.21 0.22 0.17 0.16 0.05 0.01 0.00 0.00 0.00 0.00 0.00 0.00 0.00 0.00 0.00 0.00 0.00 0.00 0.00 0.00 0.00 0.00 0.00 0.00 0.00 0.00 0.00 0.00
0.18 0.18 0.19 0.21 0.19 0.21 0.13 0.07 0.02 0.01 0.02 0.02 0.01 0.01 0.00 0.00 0.00 0.00 0.00 0.00 0.00 0.00 0.00 0.00 0.00 0.00 0.00 0.00 0.00 0.00 0.00 0.00
0.16 0.16 0.18 0.12 0.17 0.18 0.11 0.05 0.01 0.01 0.05 0.11 0.06 0.01 0.03 0.02 0.00 0.00 0.00 0.00 0.00 0.00 0.00 0.00 0.00 0.00 0.00 0.00 0.00 0.00 0.00 0.00
0.03 0.05 0.05 0.07 0.08 0.06 0.06 0.04 0.03 0.05 0.08 0.12 0.13 0.10 0.08 0.03 0.01 0.00 0.00 0.00 0.00 0.00 0.00 0.00 0.00 0.00 0.00 0.00 0.00 0.00 0.00 0.00
0.00 0.00 0.05 0.06 0.05 0.02 0.03 0.03 0.05 0.14 0.14 0.13 0.07 0.07 0.08 0.04 0.02 0.00 0.00 0.00 0.00 0.00 0.00 0.00 0.00 0.00 0.00 0.00 0.00 0.00 0.00 0.00
0.00 0.01 0.09 0.02 0.05 0.03 0.03 0.07 0.06 0.12 0.09 0.08 0.07 0.06 0.08 0.02 0.01 0.01 0.00 0.00 0.00 0.00 0.00 0.00 0.00 0.00 0.00 0.00 0.00 0.00 0.00 0.00
0.00 0.01 0.06 0.01 0.02 0.02 0.01 0.05 0.11 0.18 0.15 0.15 0.14 0.07 0.13 0.11 0.07 0.10 0.01 0.00 0.00 0.00 0.00 0.00 0.00 0.00 0.00 0.00 0.00 0.00 0.00 0.00
0.00 0.00 0.08 0.01 0.01 0.03 0.02 0.03 0.10 0.17 0.14 0.12 0.22 0.15 0.10 0.06 0.09 0.16 0.05 0.05 0.00 0.00 0.00 0.00 0.00 0.00 0.00 0.00 0.00 0.00 0.00 0.00
0.02 0.03 0.11 0.04 0.01 0.00 0.00 0.06 0.12 0.10 0.17 0.17 0.16 0.15 0.20 0.10 0.06 0.08 0.07 0.03 0.00 0.00 0.00 0.00 0.00 0.00 0.00 0.00 0.00 0.00 0.00 0.00
0.04 0.09 0.14 0.04 0.01 0.00 0.01 0.06 0.08 0.16 0.17 0.13 0.10 0.09 0.11 0.12 0.09 0.10 0.14 0.12 0.10 0.03 0.00 0.00 0.00 0.00 0.00 0.00 0.00 0.00 0.00 0.00
0.07 0.10 0.11 0.06 0.01 0.06 0.12 0.14 0.15 0.16 0.13 0.10 0.08 0.08 0.07 0.05 0.03 0.02 0.03 0.02 0.02 0.03 0.03 0.02 0.03 0.01 0.00 0.00 0.00 0.00 0.00 0.00
0.08 0.08 0.17 0.09 0.06 0.07 0.13 0.17 0.13 0.09 0.08 0.09 0.06 0.07 0.06 0.04 0.04 0.03 0.03 0.03 0.04 0.12 0.20 0.14 0.14 0.07 0.01 0.00 0.00 0.00 0.00 0.00
0.08 0.07 0.09 0.09 0.12 0.06 0.04 0.12 0.15 0.13 0.10 0.16 0.11 0.06 0.05 0.08 0.10 0.08 0.06 0.10 0.18 0.17 0.13 0.12 0.10 0.09 0.05 0.01 0.00 0.00 0.00 0.00
0.12 0.11 0.11 0.07 0.11 0.16 0.19 0.24 0.27 0.36 0.29 0.26 0.16 0.16 0.17 0.27 0.30 0.26 0.21 0.17 0.16 0.20 0.27 0.30 0.22 0.09 0.01 0.01 0.01 0.02 0.01 0.00

GFSFLT2_prec_precacc24_066.txt.gz
Total_Precipitation_Accumulation
7.64 5.16 5.07 4.34 4.55 1.82 0.50 0.13 0.02 0.02 0.04 0.05 0.03 0.00 0.00 0.00 0.00 0.00 0.00 0.00 0.00 0.00 0.00 0.00 0.00 0.00 0.00 0.00 0.00 0.00 0.00 0.00
4.78 3.66 3.66 3.50 3.30 2.69 1.28 0.49 0.09 0.06 0.09 0.10 0.05 0.00 0.00 0.00 0.00 0.00 0.00 0.00 0.00 0.00 0.00 0.00 0.00 0.00 0.00 0.00 0.00 0.00 0.00 0.00
2.00 1.55 1.20 1.52 1.47 1.52 1.49 0.75 0.21 0.08 0.06 0.11 0.08 0.04 0.00 0.00 0.00 0.00 0.00 0.00 0.00 0.00 0.00 0.00 0.00 0.00 0.00 0.00 0.00 0.00 0.00 0.00
0.72 0.48 0.23 0.19 0.34 0.45 0.60 0.51 0.24 0.08 0.06 0.07 0.07 0.02 0.00 0.00 0.00 0.00 0.00 0.00 0.00 0.00 0.00 0.00 0.00 0.00 0.00 0.00 0.00 0.00 0.00 0.00
0.59 0.46 0.26 0.15 0.15 0.19 0.22 0.16 0.09 0.03 0.04 0.02 0.01 0.00 0.00 0.00 0.00 0.00 0.00 0.00 0.00 0.00 0.00 0.00 0.00 0.00 0.00 0.00 0.00 0.00 0.00 0.00
0.26 0.34 0.34 0.46 0.30 0.21 0.17 0.12 0.04 0.02 0.01 0.01 0.00 0.00 0.00 0.00 0.00 0.00 0.00 0.00 0.00 0.00 0.00 0.00 0.00 0.00 0.00 0.00 0.00 0.00 0.00 0.00
0.34 0.16 0.24 0.22 0.22 0.22 0.17 0.16 0.06 0.02 0.01 0.00 0.00 0.00 0.00 0.00 0.00 0.00 0.00 0.00 0.00 0.00 0.00 0.00 0.00 0.00 0.00 0.00 0.00 0.00 0.00 0.00
0.39 0.31 0.27 0.28 0.20 0.22 0.14 0.07 0.02 0.01 0.00 0.01 0.01 0.00 0.00 0.00 0.00 0.00 0.00 0.00 0.00 0.00 0.00 0.00 0.00 0.00 0.00 0.00 0.00 0.00 0.00 0.00
0.41 0.36 0.25 0.17 0.18 0.21 0.16 0.08 0.01 0.01 0.06 0.11 0.06 0.01 0.03 0.02 0.00 0.00 0.00 0.00 0.00 0.00 0.00 0.00 0.00 0.00 0.00 0.00 0.00 0.00 0.00 0.00
0.14 0.19 0.11 0.06 0.08 0.08 0.08 0.04 0.03 0.05 0.09 0.13 0.13 0.10 0.09 0.03 0.01 0.00 0.00 0.00 0.00 0.00 0.00 0.00 0.00 0.00 0.00 0.00 0.00 0.00 0.00 0.00
0.03 0.02 0.01 0.01 0.05 0.02 0.03 0.03 0.05 0.14 0.15 0.14 0.07 0.07 0.08 0.04 0.02 0.00 0.00 0.00 0.00 0.00 0.00 0.00 0.00 0.00 0.00 0.00 0.00 0.00 0.00 0.00
0.01 0.02 0.00 0.00 0.04 0.02 0.02 0.08 0.06 0.12 0.09 0.09 0.08 0.06 0.08 0.02 0.01 0.01 0.00 0.00 0.00 0.00 0.00 0.00 0.00 0.00 0.00 0.00 0.00 0.00 0.00 0.00
0.00 0.00 0.00 0.00 0.01 0.00 0.01 0.05 0.11 0.18 0.15 0.15 0.15 0.08 0.13 0.11 0.07 0.10 0.01 0.01 0.00 0.00 0.00 0.00 0.00 0.00 0.00 0.00 0.00 0.00 0.00 0.00
0.00 0.00 0.00 0.00 0.01 0.02 0.02 0.03 0.10 0.17 0.14 0.12 0.22 0.15 0.11 0.07 0.13 0.26 0.12 0.09 0.02 0.02 0.00 0.00 0.00 0.00 0.00 0.00 0.00 0.00 0.00 0.00
0.00 0.01 0.00 0.00 0.00 0.00 0.00 0.06 0.12 0.10 0.17 0.17 0.16 0.15 0.20 0.13 0.16 0.20 0.15 0.08 0.03 0.01 0.01 0.00 0.00 0.00 0.00 0.00 0.00 0.00 0.00 0.00
0.00 0.01 0.01 0.00 0.00 0.00 0.01 0.06 0.08 0.16 0.17 0.13 0.10 0.09 0.11 0.12 0.15 0.16 0.18 0.13 0.12 0.07 0.02 0.01 0.03 0.06 0.09 0.08 0.05 0.02 0.02 0.02
0.00 0.05 0.06 0.03 0.00 0.06 0.12 0.14 0.15 0.16 0.13 0.10 0.08 0.08 0.07 0.05 0.04 0.03 0.03 0.04 0.06 0.07 0.07 0.13 0.20 0.24 0.25 0.16 0.13 0.13 0.13 0.10
0.03 0.05 0.13 0.08 0.06 0.07 0.12 0.17 0.14 0.10 0.08 0.09 0.06 0.07 0.07 0.07 0.05 0.04 0.04 0.07 0.07 0.14 0.29 0.32 0.28 0.26 0.27 0.24 0.15 0.12 0.10 0.09
0.05 0.06 0.09 0.08 0.12 0.07 0.05 0.12 0.16 0.16 0.12 0.17 0.12 0.06 0.06 0.15 0.22 0.19 0.12 0.14 0.25 0.20 0.16 0.17 0.18 0.19 0.22 0.26 0.21 0.08 0.05 0.04
0.10 0.10 0.11 0.07 0.10 0.16 0.20 0.25 0.31 0.37 0.36 0.30 0.19 0.20 0.24 0.39 0.52 0.54 0.43 0.27 0.21 0.21 0.27 0.31 0.26 0.20 0.18 0.13 0.06 0.06 0.05 0.02

GFSFLT2_prec_precacc24_072.txt.gz
Total_Precipitation_Accumulation
6.31 5.11 5.27 4.93 5.56 3.48 1.20 0.49 0.32 0.28 0.14 0.06 0.03 0.00 0.00 0.00 0.00 0.00 0.00 0.00 0.00 0.00 0.00 0.00 0.00 0.00 0.00 0.00 0.00 0.00 0.00 0.00
3.73 3.65 4.07 4.15 4.25 4.89 3.21 1.81 0.65 0.39 0.21 0.13 0.05 0.00 0.00 0.00 0.00 0.00 0.00 0.00 0.00 0.00 0.00 0.00 0.00 0.00 0.00 0.00 0.00 0.00 0.00 0.00
1.34 1.33 1.22 1.66 1.88 2.41 2.90 2.74 1.84 0.74 0.38 0.14 0.08 0.04 0.00 0.00 0.00 0.00 0.00 0.00 0.00 0.00 0.00 0.00 0.00 0.00 0.00 0.00 0.00 0.00 0.00 0.00
0.62 0.47 0.23 0.22 0.43 0.66 1.18 1.83 1.96 1.22 0.65 0.17 0.07 0.02 0.00 0.00 0.00 0.00 0.00 0.00 0.00 0.00 0.00 0.00 0.00 0.00 0.00 0.00 0.00 0.00 0.00 0.00
0.31 0.35 0.21 0.14 0.15 0.21 0.33 0.66 1.15 1.05 0.59 0.12 0.01 0.00 0.00 0.00 0.00 0.00 0.00 0.00 0.00 0.00 0.00 0.00 0.00 0.00 0.00 0.00 0.00 0.00 0.00 0.00
0.14 0.28 0.32 0.45 0.30 0.21 0.19 0.23 0.31 0.40 0.20 0.04 0.00 0.00 0.00 0.00 0.00 0.00 0.00 0.00 0.00 0.00 0.00 0.00 0.00 0.00 0.00 0.00 0.00 0.00 0.00 0.00
0.31 0.16 0.24 0.22 0.22 0.22 0.17 0.17 0.09 0.12 0.08 0.01 0.00 0.00 0.00 0.00 0.00 0.00 0.00 0.00 0.00 0.00 0.00 0.00 0.00 0.00 0.00 0.00 0.00 0.00 0.00 0.00
0.42 0.34 0.31 0.29 0.20 0.22 0.14 0.08 0.05 0.06 0.03 0.01 0.01 0.00 0.00 0.00 0.00 0.00 0.00 0.00 0.00 0.00 0.00 0.00 0.00 0.00 0.00 0.00 0.00 0.00 0.00 0.00
0.47 0.43 0.36 0.28 0.22 0.21 0.17 0.09 0.04 0.04 0.05 0.08 0.05 0.01 0.02 0.01 0.00 0.00 0.00 0.00 0.00 0.00 0.00 0.00 0.00 0.00 0.00 0.00 0.00 0.00 0.00 0.00
0.22 0.47 0.37 0.26 0.13 0.12 0.12 0.04 0.05 0.06 0.08 0.11 0.11 0.08 0.06 0.03 0.01 0.00 0.00 0.00 0.00 0.00 0.00 0.00 0.00 0.00 0.00 0.00 0.00 0.00 0.00 0.00
0.05 0.20 0.34 0.29 0.09 0.08 0.10 0.06 0.06 0.08 0.15 0.14 0.07 0.07 0.08 0.04 0.02 0.00 0.00 0.00 0.00 0.00 0.00 0.00 0.00 0.00 0.00 0.00 0.00 0.00 0.00 0.00
0.02 0.08 0.19 0.25 0.10 0.06 0.10 0.13 0.09 0.13 0.11 0.09 0.08 0.06 0.08 0.02 0.01 0.01 0.00 0.00 0.00 0.00 0.00 0.00 0.00 0.00 0.00 0.00 0.00 0.00 0.00 0.00
0.01 0.02 0.03 0.09 0.09 0.02 0.07 0.07 0.11 0.15 0.16 0.16 0.15 0.08 0.13 0.11 0.07 0.10 0.01 0.01 0.00 0.00 0.00 0.00 0.00 0.00 0.00 0.00 0.00 0.00 0.00 0.00
0.00 0.00 0.00 0.00 0.01 0.01 0.03 0.05 0.05 0.12 0.15 0.13 0.23 0.16 0.12 0.08 0.13 0.27 0.13 0.10 0.02 0.02 0.00 0.00 0.00 0.00 0.00 0.00 0.00 0.00 0.00 0.00
0.00 0.00 0.00 0.00 0.00 0.00 0.01 0.02 0.06 0.07 0.17 0.18 0.17 0.16 0.21 0.15 0.19 0.21 0.15 0.08 0.03 0.01 0.01 0.00 0.00 0.01 0.00 0.00 0.01 0.00 0.00 0.00
0.00 0.00 0.00 0.00 0.00 0.00 0.00 0.01 0.01 0.11 0.16 0.13 0.10 0.10 0.12 0.12 0.15 0.16 0.18 0.13 0.12 0.07 0.02 0.02 0.05 0.09 0.10 0.09 0.07 0.03 0.04 0.03
0.00 0.00 0.00 0.00 0.00 0.00 0.00 0.00 0.04 0.12 0.12 0.10 0.08 0.08 0.07 0.05 0.04 0.03 0.03 0.04 0.06 0.08 0.08 0.15 0.22 0.26 0.28 0.20 0.16 0.15 0.15 0.14
0.00 0.00 0.00 0.00 0.04 0.04 0.02 0.02 0.04 0.05 0.06 0.08 0.06 0.07 0.07 0.07 0.05 0.04 0.04 0.07 0.07 0.16 0.33 0.34 0.30 0.28 0.28 0.26 0.19 0.19 0.17 0.15
0.00 0.00 0.00 0.01 0.06 0.05 0.02 0.03 0.05 0.10 0.10 0.17 0.12 0.06 0.06 0.15 0.22 0.19 0.13 0.14 0.24 0.24 0.19 0.21 0.26 0.27 0.29 0.30 0.25 0.16 0.11 0.08
0.00 0.00 0.00 0.00 0.04 0.11 0.14 0.15 0.21 0.30 0.31 0.30 0.19 0.21 0.24 0.38 0.51 0.52 0.43 0.32 0.33 0.36 0.38 0.41 0.38 0.29 0.22 0.17 0.14 0.11 0.09 0.06

GFSFLT2_prec_precacc24_075.txt.gz
Total_Precipitation_Accumulation
5.57 5.00 5.40 5.03 5.63 3.55 1.24 0.53 0.60 0.55 0.24 0.07 0.03 0.00 0.00 0.00 0.00 0.00 0.00 0.00 0.00 0.00 0.00 0.00 0.00 0.00 0.00 0.00 0.00 0.00 0.00 0.00
3.15 3.17 3.91 4.07 4.30 4.91 3.22 1.85 0.85 0.74 0.30 0.14 0.05 0.00 0.00 0.00 0.00 0.00 0.00 0.00 0.00 0.00 0.00 0.00 0.00 0.00 0.00 0.00 0.00 0.00 0.00 0.00
0.99 1.17 1.23 1.66 1.83 2.39 2.90 2.77 2.05 1.36 0.73 0.17 0.08 0.04 0.00 0.00 0.00 0.00 0.00 0.00 0.00 0.00 0.00 0.00 0.00 0.00 0.00 0.00 0.00 0.00 0.00 0.00
0.28 0.24 0.17 0.24 0.38 0.60 1.15 1.92 2.23 1.73 1.09 0.26 0.07 0.02 0.00 0.00 0.00 0.00 0.00 0.00 0.00 0.00 0.00 0.00 0.00 0.00 0.00 0.00 0.00 0.00 0.00 0.00
0.27 0.32 0.21 0.16 0.16 0.18 0.33 0.96 1.71 1.61 0.97 0.22 0.01 0.00 0.00 0.00 0.00 0.00 0.00 0.00 0.00 0.00 0.00 0.00 0.00 0.00 0.00 0.00 0.00 0.00 0.00 0.00
0.14 0.27 0.28 0.42 0.29 0.19 0.20 0.56 1.03 0.90 0.34 0.07 0.00 0.00 0.00 0.00 0.00 0.00 0.00 0.00 0.00 0.00 0.00 0.00 0.00 0.00 0.00 0.00 0.00 0.00 0.00 0.00
0.29 0.14 0.23 0.22 0.21 0.22 0.19 0.41 0.39 0.32 0.16 0.01 0.00 0.00 0.00 0.00 0.00 0.00 0.00 0.00 0.00 0.00 0.00 0.00 0.00 0.00 0.00 0.00 0.00 0.00 0.00 0.00
0.42 0.34 0.31 0.29 0.20 0.22 0.15 0.22 0.30 0.15 0.09 0.00 0.01 0.00 0.00 0.00 0.00 0.00 0.00 0.00 0.00 0.00 0.00 0.00 0.00 0.00 0.00 0.00 0.00 0.00 0.00 0.00
0.48 0.44 0.36 0.28 0.23 0.22 0.17 0.16 0.23 0.16 0.06 0.00 0.01 0.01 0.00 0.00 0.00 0.00 0.00 0.00 0.00 0.00 0.00 0.00 0.00 0.00 0.00 0.00 0.00 0.00 0.00 0.00
0.23 0.49 0.48 0.31 0.16 0.13 0.13 0.12 0.19 0.16 0.04 0.01 0.01 0.01 0.01 0.00 0.00 0.00 0.00 0.00 0.00 0.00 0.00 0.00 0.00 0.00 0.00 0.00 0.00 0.00 0.00 0.00
0.06 0.24 0.47 0.37 0.12 0.08 0.12 0.12 0.22 0.17 0.06 0.05 0.02 0.02 0.04 0.02 0.01 0.00 0.00 0.00 0.00 0.00 0.00 0.00 0.00 0.00 0.00 0.00 0.00 0.00 0.00 0.00
0.02 0.09 0.26 0.39 0.13 0.09 0.15 0.20 0.28 0.23 0.07 0.03 0.06 0.05 0.07 0.01 0.00 0.01 0.00 0.00 0.00 0.00 0.00 0.00 0.00 0.00 0.00 0.00 0.00 0.00 0.00 0.00
0.01 0.02 0.04 0.14 0.11 0.03 0.10 0.17 0.26 0.25 0.14 0.07 0.12 0.08 0.13 0.11 0.07 0.10 0.01 0.01 0.00 0.01 0.01 0.00 0.00 0.00 0.00 0.00 0.00 0.00 0.00 0.00
0.01 0.00 0.00 0.01 0.02 0.01 0.03 0.08 0.13 0.16 0.17 0.07 0.18 0.16 0.12 0.08 0.13 0.27 0.14 0.10 0.02 0.02 0.01 0.01 0.01 0.00 0.00 0.00 0.00 0.00 0.00 0.00
0.00 0.00 0.00 0.00 0.01 0.01 0.04 0.16 0.16 0.12 0.21 0.15 0.16 0.16 0.21 0.15 0.19 0.23 0.16 0.09 0.05 0.02 0.01 0.00 0.00 0.01 0.01 0.01 0.01 0.00 0.00 0.00
0.00 0.00 0.00 0.00 0.00 0.00 0.01 0.05 0.08 0.06 0.08 0.12 0.11 0.10 0.13 0.13 0.15 0.17 0.21 0.16 0.13 0.08 0.02 0.02 0.05 0.09 0.11 0.09 0.07 0.04 0.04 0.04
0.00 0.00 0.00 0.00 0.00 0.00 0.00 0.00 0.01 0.05 0.07 0.08 0.07 0.08 0.07 0.06 0.05 0.05 0.04 0.06 0.08 0.11 0.12 0.17 0.23 0.27 0.28 0.20 0.16 0.16 0.16 0.14
0.00 0.00 0.00 0.00 0.00 0.02 0.01 0.00 0.01 0.01 0.01 0.04 0.04 0.06 0.07 0.07 0.05 0.05 0.04 0.07 0.08 0.17 0.36 0.36 0.32 0.29 0.30 0.27 0.21 0.20 0.17 0.16
0.00 0.00 0.00 0.00 0.02 0.02 0.01 0.01 0.03 0.04 0.04 0.13 0.11 0.05 0.05 0.15 0.22 0.19 0.13 0.14 0.23 0.22 0.20 0.24 0.30 0.30 0.32 0.35 0.30 0.19 0.14 0.11
0.00 0.00 0.00 0.00 0.02 0.04 0.08 0.12 0.17 0.20 0.18 0.22 0.16 0.18 0.22 0.38 0.51 0.50 0.41 0.31 0.32 0.36 0.38 0.41 0.39 0.31 0.24 0.19 0.15 0.13 0.12 0.09

GFSFLT2_prec_precacc24_078.txt.gz
Total_Precipitation_Accumulation
5.25 5.08 5.48 5.13 5.68 3.61 1.32 0.61 0.67 0.67 0.39 0.26 0.16 0.05 0.00 0.01 0.00 0.00 0.00 0.00 0.00 0.00 0.00 0.00 0.00 0.00 0.00 0.00 0.00 0.00 0.00 0.00
2.47 2.90 3.88 4.04 4.30 4.94 3.26 1.86 0.93 0.95 0.47 0.25 0.14 0.06 0.02 0.00 0.00 0.00 0.00 0.00 0.00 0.00 0.00 0.00 0.00 0.00 0.00 0.00 0.00 0.00 0.00 0.00
0.88 1.12 1.21 1.61 1.79 2.34 2.92 2.78 2.12 1.66 1.47 0.51 0.20 0.11 0.03 0.00 0.00 0.00 0.00 0.00 0.00 0.00 0.00 0.00 0.00 0.00 0.00 0.00 0.00 0.00 0.00 0.00
0.23 0.21 0.23 0.36 0.40 0.49 1.04 1.92 2.26 1.95 2.35 1.00 0.25 0.09 0.02 0.00 0.00 0.00 0.00 0.00 0.00 0.00 0.00 0.00 0.00 0.00 0.00 0.00 0.00 0.00 0.00 0.00
0.16 0.09 0.05 0.18 0.15 0.11 0.24 0.93 1.74 1.95 1.95 1.09 0.18 0.09 0.02 0.01 0.00 0.00 0.00 0.00 0.00 0.00 0.00 0.00 0.00 0.00 0.00 0.00 0.00 0.00 0.00 0.00
0.08 0.16 0.12 0.20 0.24 0.17 0.17 0.57 1.25 1.45 1.01 0.49 0.12 0.04 0.00 0.00 0.00 0.00 0.00 0.00 0.00 0.00 0.00 0.00 0.00 0.00 0.00 0.00 0.00 0.00 0.00 0.00
0.24 0.10 0.20 0.18 0.19 0.20 0.18 0.44 0.61 0.77 0.60 0.10 0.03 0.01 0.00 0.00 0.00 0.00 0.00 0.00 0.00 0.00 0.00 0.00 0.00 0.00 0.00 0.00 0.00 0.00 0.00 0.00
0.39 0.32 0.29 0.28 0.19 0.21 0.17 0.27 0.62 0.44 0.32 0.09 0.02 0.00 0.00 0.00 0.00 0.00 0.00 0.00 0.00 0.00 0.00 0.00 0.00 0.00 0.00 0.00 0.00 0.00 0.00 0.00
0.48 0.45 0.35 0.26 0.20 0.22 0.21 0.19 0.35 0.39 0.17 0.05 0.01 0.01 0.00 0.00 0.00 0.00 0.00 0.00 0.00 0.00 0.00 0.00 0.00 0.00 0.00 0.00 0.00 0.00 0.00 0.00
0.23 0.50 0.48 0.31 0.16 0.17 0.22 0.27 0.25 0.25 0.09 0.01 0.00 0.00 0.00 0.00 0.00 0.00 0.00 0.00 0.00 0.00 0.00 0.00 0.00 0.00 0.00 0.00 0.00 0.00 0.00 0.00
0.06 0.24 0.49 0.39 0.15 0.15 0.19 0.30 0.32 0.20 0.08 0.01 0.00 0.00 0.00 0.00 0.00 0.00 0.00 0.00 0.00 0.00 0.00 0.00 0.00 0.00 0.00 0.00 0.00 0.00 0.00 0.00
0.03 0.10 0.27 0.42 0.16 0.11 0.24 0.41 0.39 0.26 0.08 0.01 0.02 0.02 0.04 0.00 0.00 0.01 0.00 0.00 0.00 0.00 0.00 0.00 0.00 0.00 0.00 0.00 0.00 0.00 0.00 0.00
0.02 0.03 0.05 0.15 0.12 0.04 0.16 0.34 0.38 0.28 0.14 0.02 0.03 0.05 0.11 0.11 0.07 0.10 0.01 0.01 0.00 0.01 0.01 0.00 0.00 0.00 0.00 0.00 0.00 0.00 0.00 0.00
0.01 0.00 0.00 0.01 0.02 0.01 0.04 0.14 0.28 0.21 0.16 0.03 0.06 0.06 0.10 0.08 0.13 0.27 0.14 0.10 0.02 0.02 0.02 0.02 0.03 0.02 0.01 0.00 0.00 0.00 0.00 0.00
0.00 0.00 0.00 0.00 0.01 0.01 0.04 0.17 0.27 0.22 0.19 0.04 0.03 0.07 0.18 0.14 0.19 0.23 0.16 0.09 0.05 0.02 0.01 0.00 0.01 0.02 0.02 0.02 0.03 0.02 0.01 0.00
0.00 0.00 0.00 0.00 0.00 0.00 0.01 0.05 0.12 0.07 0.04 0.03 0.03 0.06 0.11 0.13 0.15 0.17 0.21 0.16 0.13 0.08 0.04 0.03 0.05 0.09 0.11 0.09 0.10 0.06 0.07 0.07
0.00 0.00 0.00 0.00 0.00 0.00 0.00 0.01 0.03 0.06 0.06 0.04 0.03 0.04 0.05 0.05 0.05 0.05 0.04 0.06 0.08 0.12 0.13 0.17 0.23 0.27 0.29 0.21 0.16 0.16 0.16 0.15
0.00 0.00 0.00 0.00 0.00 0.00 0.00 0.00 0.02 0.03 0.03 0.04 0.01 0.02 0.05 0.07 0.05 0.05 0.05 0.07 0.09 0.19 0.38 0.37 0.32 0.31 0.35 0.29 0.21 0.21 0.18 0.17
0.00 0.00 0.00 0.00 0.00 0.00 0.00 0.00 0.01 0.04 0.03 0.11 0.06 0.02 0.03 0.13 0.20 0.19 0.15 0.16 0.28 0.29 0.26 0.29 0.31 0.32 0.33 0.35 0.30 0.19 0.15 0.14
0.00 0.00 0.00 0.00 0.00 0.00 0.02 0.08 0.14 0.19 0.17 0.18 0.11 0.13 0.14 0.34 0.50 0.51 0.41 0.33 0.35 0.40 0.42 0.44 0.40 0.31 0.25 0.19 0.16 0.13 0.13 0.11

GFSFLT2_prec_precacc24_084.txt.gz
Total_Precipitation_Accumulation
2.74 4.08 5.07 4.92 5.71 3.80 1.53 1.43 1.44 1.69 1.78 1.30 1.11 0.77 0.14 0.04 0.06 0.05 0.00 0.00 0.00 0.00 0.00 0.00 0.00 0.00 0.00 0.00 0.00 0.00 0.00 0.00
0.94 1.79 2.72 3.22 3.71 4.78 3.30 2.08 1.67 1.49 1.31 0.97 0.73 0.95 0.63 0.14 0.03 0.05 0.02 0.00 0.00 0.00 0.00 0.00 0.00 0.00 0.00 0.00 0.00 0.00 0.00 0.00
0.44 0.57 0.67 1.04 1.34 2.00 2.76 2.75 2.31 2.38 2.36 1.13 0.64 0.59 0.72 0.31 0.09 0.02 0.01 0.00 0.00 0.00 0.00 0.00 0.00 0.00 0.00 0.00 0.00 0.00 0.00 0.00
0.14 0.15 0.20 0.31 0.32 0.43 0.95 1.83 2.26 2.07 3.31 1.62 0.89 0.57 0.33 0.38 0.30 0.05 0.00 0.00 0.00 0.00 0.00 0.00 0.00 0.00 0.00 0.00 0.00 0.00 0.00 0.00
0.04 0.03 0.03 0.17 0.12 0.12 0.25 0.95 1.83 2.13 2.22 1.59 0.73 0.60 0.56 0.39 0.43 0.18 0.01 0.00 0.00 0.00 0.00 0.00 0.00 0.00 0.00 0.00 0.00 0.00 0.00 0.00
0.04 0.03 0.03 0.07 0.06 0.04 0.12 0.57 1.37 1.59 1.21 0.99 0.71 0.43 0.36 0.27 0.31 0.23 0.02 0.00 0.00 0.00 0.00 0.00 0.00 0.00 0.00 0.00 0.00 0.00 0.00 0.00
0.16 0.05 0.08 0.05 0.02 0.02 0.04 0.34 0.68 0.90 0.80 0.32 0.65 0.31 0.16 0.16 0.24 0.20 0.01 0.00 0.00 0.00 0.00 0.00 0.00 0.00 0.00 0.00 0.00 0.00 0.00 0.00
0.26 0.18 0.13 0.09 0.03 0.04 0.05 0.21 0.65 0.54 0.54 0.17 0.17 0.18 0.20 0.16 0.17 0.12 0.00 0.00 0.00 0.00 0.00 0.00 0.00 0.00 0.00 0.00 0.00 0.00 0.00 0.00
0.33 0.30 0.19 0.17 0.07 0.05 0.11 0.16 0.38 0.48 0.50 0.24 0.12 0.08 0.10 0.08 0.13 0.10 0.02 0.00 0.00 0.00 0.00 0.00 0.00 0.00 0.00 0.00 0.00 0.00 0.00 0.00
0.21 0.46 0.44 0.29 0.11 0.14 0.18 0.29 0.30 0.34 0.33 0.30 0.11 0.08 0.05 0.07 0.13 0.16 0.09 0.01 0.00 0.00 0.00 0.00 0.00 0.00 0.00 0.00 0.00 0.00 0.00 0.00
0.07 0.26 0.50 0.40 0.15 0.16 0.27 0.35 0.42 0.30 0.19 0.19 0.11 0.10 0.12 0.05 0.10 0.13 0.15 0.05 0.00 0.00 0.00 0.00 0.00 0.00 0.00 0.00 0.00 0.00 0.00 0.00
0.04 0.11 0.28 0.42 0.16 0.11 0.31 0.51 0.45 0.33 0.17 0.13 0.15 0.10 0.12 0.09 0.12 0.07 0.03 0.03 0.00 0.00 0.00 0.00 0.00 0.00 0.00 0.00 0.00 0.00 0.00 0.00
0.02 0.04 0.05 0.16 0.12 0.06 0.21 0.40 0.46 0.31 0.18 0.07 0.07 0.10 0.05 0.07 0.08 0.06 0.03 0.02 0.01 0.01 0.01 0.00 0.00 0.00 0.00 0.00 0.00 0.00 0.00 0.00
0.02 0.01 0.01 0.02 0.03 0.03 0.06 0.15 0.30 0.22 0.19 0.03 0.03 0.02 0.05 0.04 0.05 0.12 0.09 0.06 0.02 0.02 0.02 0.02 0.03 0.02 0.01 0.00 0.01 0.01 0.00 0.00
0.01 0.01 0.01 0.01 0.02 0.04 0.08 0.21 0.30 0.23 0.20 0.04 0.02 0.02 0.02 0.04 0.13 0.14 0.09 0.06 0.04 0.02 0.01 0.00 0.01 0.03 0.03 0.04 0.12 0.12 0.06 0.01
0.00 0.00 0.01 0.01 0.01 0.02 0.03 0.07 0.15 0.08 0.04 0.04 0.02 0.01 0.02 0.02 0.07 0.07 0.07 0.04 0.04 0.06 0.05 0.04 0.07 0.11 0.11 0.11 0.16 0.17 0.18 0.16
0.00 0.01 0.00 0.01 0.00 0.00 0.01 0.02 0.04 0.07 0.06 0.03 0.01 0.00 0.01 0.01 0.02 0.02 0.02 0.05 0.08 0.09 0.10 0.18 0.25 0.34 0.31 0.22 0.17 0.21 0.22 0.17
0.00 0.00 0.00 0.01 0.00 0.01 0.01 0.01 0.03 0.06 0.03 0.02 0.00 0.00 0.01 0.03 0.01 0.02 0.02 0.05 0.07 0.13 0.28 0.31 0.24 0.36 0.49 0.43 0.24 0.21 0.20 0.17
0.00 0.00 0.00 0.00 0.01 0.01 0.01 0.01 0.01 0.03 0.03 0.02 0.00 0.00 0.01 0.07 0.12 0.11 0.09 0.07 0.16 0.24 0.32 0.27 0.32 0.37 0.47 0.47 0.41 0.25 0.19 0.19
0.00 0.00 0.00 0.00 0.00 0.00 0.01 0.02 0.04 0.01 0.07 0.05 0.04 0.05 0.07 0.13 0.22 0.30 0.26 0.20 0.20 0.27 0.28 0.23 0.31 0.32 0.34 0.27 0.20 0.14 0.14 0.13

GFSFLT2_prec_precacc24_087.txt.gz
Total_Precipitation_Accumulation
1.37 2.10 3.12 3.42 4.49 3.08 1.26 1.40 1.46 1.76 1.82 1.80 2.18 1.81 0.39 0.10 0.15 0.09 0.01 0.00 0.00 0.00 0.00 0.00 0.00 0.00 0.00 0.00 0.00 0.00 0.00 0.00
0.78 1.37 1.93 2.01 2.79 3.83 2.75 1.91 1.66 1.49 1.33 1.19 1.25 1.64 1.14 0.41 0.14 0.09 0.03 0.00 0.00 0.00 0.00 0.00 0.00 0.00 0.00 0.00 0.00 0.00 0.00 0.00
0.43 0.56 0.65 0.84 1.07 1.64 2.39 2.56 2.26 2.35 2.53 1.61 1.09 0.97 1.25 0.63 0.31 0.10 0.02 0.00 0.00 0.00 0.00 0.00 0.00 0.00 0.00 0.00 0.00 0.00 0.00 0.00
0.14 0.15 0.20 0.31 0.31 0.37 0.80 1.69 2.17 2.05 3.36 2.16 1.70 0.87 0.56 0.54 0.53 0.14 0.01 0.00 0.00 0.00 0.00 0.00 0.00 0.00 0.00 0.00 0.00 0.00 0.00 0.00
0.03 0.03 0.04 0.17 0.12 0.12 0.25 0.95 1.84 2.13 2.24 1.91 1.69 0.79 0.63 0.45 0.67 0.39 0.02 0.00 0.00 0.00 0.00 0.00 0.00 0.00 0.00 0.00 0.00 0.00 0.00 0.00
0.02 0.01 0.01 0.05 0.06 0.04 0.12 0.57 1.40 1.60 1.21 1.01 0.89 0.49 0.39 0.31 0.40 0.38 0.03 0.00 0.00 0.00 0.00 0.00 0.00 0.00 0.00 0.00 0.00 0.00 0.00 0.00
0.05 0.03 0.01 0.01 0.01 0.01 0.04 0.33 0.67 0.96 0.84 0.33 0.66 0.31 0.16 0.18 0.29 0.30 0.06 0.00 0.00 0.00 0.00 0.00 0.00 0.00 0.00 0.00 0.00 0.00 0.00 0.00
0.11 0.09 0.07 0.07 0.02 0.03 0.05 0.21 0.65 0.55 0.61 0.21 0.17 0.18 0.20 0.17 0.22 0.18 0.04 0.00 0.00 0.00 0.00 0.00 0.00 0.00 0.00 0.00 0.00 0.00 0.00 0.00
0.23 0.24 0.15 0.16 0.07 0.04 0.06 0.13 0.38 0.49 0.52 0.30 0.14 0.08 0.10 0.09 0.20 0.14 0.03 0.00 0.00 0.00 0.00 0.00 0.00 0.00 0.00 0.00 0.00 0.00 0.00 0.00
0.19 0.41 0.41 0.28 0.11 0.12 0.16 0.28 0.30 0.34 0.34 0.33 0.13 0.08 0.05 0.07 0.17 0.20 0.09 0.01 0.00 0.00 0.00 0.00 0.00 0.00 0.00 0.00 0.00 0.00 0.00 0.00
0.07 0.25 0.50 0.40 0.15 0.16 0.27 0.35 0.42 0.30 0.18 0.20 0.13 0.11 0.13 0.07 0.15 0.16 0.18 0.07 0.01 0.00 0.00 0.00 0.00 0.00 0.00 0.00 0.00 0.00 0.00 0.00
0.04 0.11 0.28 0.43 0.16 0.11 0.31 0.51 0.45 0.34 0.18 0.15 0.17 0.11 0.19 0.19 0.16 0.10 0.08 0.05 0.01 0.00 0.00 0.00 0.00 0.00 0.00 0.00 0.00 0.00 0.00 0.00
0.02 0.04 0.05 0.16 0.12 0.06 0.21 0.40 0.46 0.31 0.21 0.12 0.15 0.16 0.15 0.26 0.27 0.17 0.10 0.02 0.01 0.01 0.01 0.00 0.00 0.00 0.00 0.00 0.00 0.00 0.00 0.00
0.02 0.01 0.01 0.02 0.03 0.03 0.06 0.15 0.30 0.22 0.20 0.05 0.07 0.14 0.25 0.19 0.12 0.17 0.11 0.02 0.01 0.01 0.01 0.02 0.03 0.02 0.01 0.00 0.01 0.01 0.00 0.00
0.01 0.01 0.01 0.01 0.02 0.04 0.08 0.21 0.30 0.23 0.20 0.05 0.03 0.05 0.08 0.12 0.09 0.08 0.04 0.02 0.02 0.02 0.01 0.00 0.01 0.02 0.03 0.04 0.12 0.12 0.06 0.01
0.00 0.00 0.01 0.01 0.01 0.02 0.03 0.07 0.15 0.08 0.04 0.04 0.02 0.01 0.02 0.01 0.01 0.02 0.03 0.03 0.03 0.03 0.04 0.03 0.04 0.05 0.06 0.10 0.15 0.17 0.18 0.16
0.00 0.01 0.00 0.01 0.01 0.00 0.01 0.02 0.04 0.07 0.06 0.03 0.01 0.00 0.01 0.01 0.02 0.02 0.01 0.04 0.08 0.09 0.08 0.08 0.09 0.15 0.13 0.12 0.08 0.15 0.23 0.18
0.00 0.00 0.00 0.01 0.00 0.00 0.01 0.01 0.02 0.05 0.03 0.02 0.00 0.00 0.00 0.00 0.00 0.02 0.02 0.04 0.08 0.12 0.21 0.14 0.12 0.23 0.27 0.23 0.13 0.14 0.20 0.19
0.00 0.00 0.00 0.01 0.01 0.00 0.01 0.01 0.00 0.00 0.01 0.00 0.00 0.00 0.00 0.01 0.04 0.08 0.09 0.07 0.16 0.24 0.31 0.24 0.28 0.32 0.40 0.35 0.34 0.23 0.18 0.18
0.00 0.00 0.00 0.00 0.01 0.00 0.01 0.01 0.00 0.00 0.01 0.01 0.03 0.02 0.00 0.00 0.05 0.16 0.21 0.19 0.20 0.27 0.29 0.24 0.31 0.26 0.29 0.24 0.18 0.12 0.11 0.12

GFSFLT2_prec_precacc24_090.txt.gz
Total_Precipitation_Accumulation
0.95 1.09 0.94 1.18 1.63 2.06 1.05 1.35 1.55 1.90 1.88 1.83 2.31 2.41 1.33 0.89 0.43 0.19 0.06 0.08 0.01 0.00 0.00 0.00 0.00 0.00 0.00 0.00 0.00 0.00 0.00 0.00
0.58 1.10 0.95 0.82 1.16 2.35 2.11 1.66 1.64 1.49 1.32 1.15 1.26 1.89 1.88 1.23 0.47 0.25 0.11 0.03 0.00 0.00 0.00 0.00 0.00 0.00 0.00 0.00 0.00 0.00 0.00 0.00
0.36 0.48 0.47 0.41 0.56 0.96 1.54 2.18 2.14 2.31 2.50 1.57 1.13 1.11 1.71 1.26 0.74 0.28 0.07 0.03 0.00 0.00 0.00 0.00 0.00 0.00 0.00 0.00 0.00 0.00 0.00 0.00
0.13 0.15 0.20 0.28 0.26 0.29 0.63 1.48 2.11 2.00 3.32 2.16 1.72 0.96 1.10 0.91 0.87 0.36 0.03 0.00 0.00 0.00 0.00 0.00 0.00 0.00 0.00 0.00 0.00 0.00 0.00 0.00
0.02 0.03 0.04 0.18 0.12 0.11 0.24 0.93 1.83 2.12 2.21 2.00 2.02 1.08 1.20 0.83 0.85 0.50 0.04 0.00 0.00 0.00 0.00 0.00 0.00 0.00 0.00 0.00 0.00 0.00 0.00 0.00
0.02 0.01 0.01 0.05 0.06 0.04 0.12 0.57 1.40 1.61 1.24 1.04 1.41 0.88 0.73 0.52 0.45 0.41 0.03 0.00 0.00 0.00 0.00 0.00 0.00 0.00 0.00 0.00 0.00 0.00 0.00 0.00
0.03 0.02 0.01 0.01 0.01 0.01 0.04 0.33 0.67 0.98 0.87 0.33 0.78 0.39 0.21 0.21 0.29 0.30 0.06 0.00 0.00 0.00 0.00 0.00 0.00 0.00 0.00 0.00 0.00 0.00 0.00 0.00
0.05 0.04 0.05 0.02 0.02 0.03 0.05 0.21 0.65 0.56 0.62 0.22 0.18 0.19 0.20 0.18 0.22 0.18 0.04 0.00 0.00 0.00 0.00 0.00 0.00 0.00 0.00 0.00 0.00 0.00 0.00 0.00
0.08 0.10 0.12 0.12 0.06 0.03 0.06 0.13 0.38 0.50 0.54 0.31 0.14 0.09 0.11 0.09 0.20 0.14 0.03 0.00 0.00 0.00 0.00 0.00 0.00 0.00 0.00 0.00 0.00 0.00 0.00 0.00
0.10 0.32 0.38 0.27 0.11 0.12 0.16 0.28 0.30 0.35 0.37 0.36 0.14 0.08 0.07 0.09 0.18 0.21 0.09 0.01 0.00 0.00 0.00 0.00 0.00 0.00 0.00 0.00 0.00 0.00 0.00 0.00
0.04 0.24 0.49 0.40 0.15 0.16 0.27 0.35 0.42 0.30 0.20 0.25 0.18 0.14 0.15 0.09 0.19 0.18 0.19 0.07 0.01 0.00 0.00 0.00 0.00 0.00 0.00 0.00 0.00 0.00 0.00 0.00
0.03 0.10 0.28 0.43 0.16 0.11 0.31 0.51 0.45 0.34 0.18 0.18 0.25 0.18 0.26 0.26 0.22 0.13 0.09 0.05 0.01 0.00 0.00 0.00 0.00 0.00 0.00 0.00 0.00 0.00 0.00 0.00
0.02 0.03 0.05 0.16 0.12 0.06 0.21 0.40 0.46 0.31 0.21 0.12 0.17 0.24 0.23 0.37 0.40 0.27 0.11 0.02 0.01 0.01 0.01 0.00 0.00 0.00 0.00 0.00 0.00 0.00 0.00 0.00
0.02 0.01 0.01 0.02 0.03 0.03 0.06 0.15 0.30 0.23 0.20 0.05 0.08 0.17 0.32 0.27 0.20 0.27 0.18 0.03 0.01 0.00 0.01 0.02 0.03 0.02 0.01 0.00 0.01 0.01 0.00 0.00
0.01 0.01 0.01 0.01 0.02 0.04 0.08 0.21 0.30 0.24 0.20 0.06 0.05 0.10 0.14 0.22 0.23 0.20 0.08 0.03 0.02 0.01 0.01 0.00 0.01 0.02 0.02 0.03 0.11 0.11 0.06 0.01
0.00 0.00 0.01 0.01 0.01 0.02 0.03 0.07 0.15 0.08 0.04 0.04 0.03 0.09 0.14 0.17 0.20 0.23 0.14 0.06 0.03 0.02 0.03 0.03 0.03 0.04 0.02 0.03 0.11 0.16 0.16 0.14
0.00 0.01 0.00 0.01 0.01 0.01 0.02 0.02 0.04 0.07 0.06 0.03 0.02 0.02 0.07 0.12 0.16 0.17 0.13 0.08 0.05 0.06 0.06 0.07 0.08 0.12 0.06 0.05 0.04 0.10 0.14 0.08
0.00 0.00 0.00 0.01 0.01 0.01 0.01 0.01 0.02 0.05 0.03 0.02 0.00 0.00 0.02 0.02 0.03 0.03 0.04 0.04 0.07 0.11 0.19 0.12 0.10 0.21 0.24 0.20 0.09 0.10 0.13 0.11
0.00 0.00 0.00 0.01 0.01 0.00 0.01 0.01 0.00 0.00 0.01 0.00 0.00 0.00 0.00 0.00 0.00 0.01 0.03 0.04 0.10 0.23 0.30 0.23 0.26 0.30 0.35 0.25 0.22 0.18 0.16 0.17
0.00 0.00 0.00 0.00 0.01 0.00 0.01 0.01 0.00 0.00 0.00 0.00 0.00 0.00 0.00 0.00 0.00 0.02 0.04 0.10 0.16 0.26 0.29 0.23 0.29 0.24 0.21 0.17 0.16 0.12 0.11 0.12

GFSFLT2_prec_precacc24_093.txt.gz
Total_Precipitation_Accumulation
0.55 0.57 0.59 0.67 0.71 0.46 0.56 1.15 1.46 1.97 1.97 1.92 2.40 2.82 1.88 1.28 0.77 0.46 0.40 0.31 0.07 0.02 0.02 0.01 0.00 0.00 0.00 0.00 0.00 0.00 0.00 0.00
0.32 0.57 0.46 0.21 0.33 0.27 0.69 1.01 1.55 1.56 1.44 1.27 1.36 1.97 1.94 1.32 0.80 0.57 0.55 0.29 0.02 0.01 0.01 0.00 0.00 0.00 0.00 0.00 0.00 0.00 0.00 0.00
0.17 0.31 0.35 0.27 0.17 0.16 0.48 1.15 1.60 2.17 2.50 1.61 1.21 1.16 1.72 1.33 0.92 0.57 0.51 0.33 0.07 0.01 0.00 0.00 0.00 0.00 0.00 0.00 0.00 0.00 0.00 0.00
0.07 0.09 0.16 0.24 0.17 0.12 0.21 0.90 1.58 1.65 3.19 2.15 1.73 0.97 1.11 1.02 1.08 0.68 0.47 0.26 0.06 0.02 0.00 0.00 0.00 0.00 0.00 0.00 0.00 0.00 0.00 0.00
0.02 0.03 0.04 0.17 0.11 0.09 0.18 0.82 1.58 1.93 2.08 1.95 2.02 1.11 1.25 1.01 1.11 0.87 0.54 0.28 0.03 0.02 0.00 0.00 0.00 0.00 0.00 0.00 0.00 0.00 0.00 0.00
0.01 0.01 0.01 0.05 0.06 0.04 0.12 0.56 1.36 1.54 1.18 1.02 1.44 0.94 0.87 0.90 0.68 0.63 0.34 0.09 0.00 0.00 0.00 0.00 0.00 0.00 0.00 0.00 0.00 0.00 0.00 0.00
0.03 0.02 0.01 0.01 0.01 0.01 0.04 0.33 0.67 0.96 0.84 0.32 0.96 0.62 0.35 0.61 0.48 0.45 0.13 0.01 0.00 0.00 0.00 0.00 0.00 0.00 0.00 0.00 0.00 0.00 0.00 0.00
0.01 0.02 0.01 0.02 0.02 0.03 0.05 0.21 0.64 0.55 0.61 0.22 0.19 0.29 0.36 0.36 0.34 0.24 0.08 0.00 0.00 0.00 0.00 0.00 0.00 0.00 0.00 0.00 0.00 0.00 0.00 0.00
0.02 0.05 0.03 0.06 0.02 0.02 0.05 0.12 0.37 0.50 0.53 0.31 0.15 0.09 0.14 0.13 0.24 0.16 0.04 0.00 0.00 0.00 0.00 0.00 0.00 0.00 0.00 0.00 0.00 0.00 0.00 0.00
0.03 0.11 0.18 0.14 0.07 0.09 0.13 0.27 0.30 0.35 0.38 0.37 0.14 0.09 0.07 0.10 0.18 0.21 0.09 0.01 0.00 0.00 0.00 0.00 0.00 0.00 0.00 0.00 0.00 0.00 0.00 0.00
0.02 0.10 0.31 0.32 0.15 0.15 0.25 0.35 0.42 0.31 0.22 0.28 0.21 0.16 0.16 0.11 0.21 0.18 0.19 0.07 0.01 0.00 0.00 0.00 0.00 0.00 0.00 0.00 0.00 0.00 0.00 0.00
0.02 0.04 0.22 0.38 0.15 0.10 0.31 0.51 0.45 0.34 0.19 0.24 0.32 0.23 0.31 0.29 0.27 0.21 0.10 0.05 0.01 0.00 0.00 0.00 0.00 0.00 0.00 0.00 0.00 0.00 0.00 0.00
0.02 0.02 0.05 0.15 0.12 0.06 0.20 0.39 0.46 0.31 0.21 0.13 0.29 0.41 0.33 0.49 0.47 0.38 0.23 0.03 0.01 0.01 0.01 0.00 0.00 0.00 0.00 0.00 0.00 0.00 0.00 0.00
0.02 0.01 0.01 0.02 0.03 0.03 0.06 0.15 0.30 0.23 0.20 0.05 0.08 0.26 0.50 0.41 0.33 0.38 0.38 0.06 0.01 0.00 0.01 0.02 0.03 0.02 0.01 0.00 0.01 0.01 0.00 0.00
0.01 0.01 0.01 0.01 0.02 0.04 0.08 0.21 0.30 0.24 0.20 0.06 0.05 0.10 0.19 0.35 0.33 0.30 0.18 0.11 0.03 0.01 0.00 0.00 0.01 0.02 0.02 0.03 0.11 0.11 0.06 0.01
0.00 0.00 0.01 0.01 0.01 0.02 0.03 0.07 0.15 0.08 0.04 0.04 0.04 0.10 0.16 0.23 0.29 0.32 0.23 0.10 0.05 0.03 0.03 0.02 0.02 0.02 0.01 0.03 0.10 0.15 0.16 0.14
0.00 0.01 0.00 0.01 0.01 0.01 0.02 0.02 0.04 0.07 0.06 0.04 0.02 0.02 0.09 0.16 0.25 0.35 0.35 0.19 0.14 0.10 0.08 0.06 0.06 0.11 0.05 0.03 0.03 0.10 0.13 0.06
0.00 0.00 0.00 0.01 0.01 0.01 0.01 0.01 0.02 0.05 0.03 0.02 0.01 0.01 0.04 0.06 0.16 0.18 0.28 0.26 0.28 0.23 0.22 0.13 0.10 0.20 0.23 0.19 0.06 0.05 0.08 0.07
0.00 0.00 0.00 0.01 0.01 0.00 0.01 0.01 0.00 0.00 0.01 0.00 0.00 0.00 0.01 0.03 0.03 0.03 0.07 0.10 0.17 0.25 0.32 0.23 0.24 0.29 0.33 0.24 0.20 0.13 0.12 0.15
0.00 0.00 0.00 0.00 0.01 0.00 0.01 0.01 0.00 0.00 0.00 0.00 0.00 0.00 0.00 0.00 0.00 0.01 0.01 0.02 0.05 0.15 0.22 0.19 0.28 0.23 0.20 0.15 0.11 0.08 0.09 0.12

GFSFLT2_prec_precacc24_099.txt.gz
Total_Precipitation_Accumulation
0.23 0.24 0.22 0.38 0.55 0.36 0.34 0.97 1.05 1.50 1.88 1.99 2.40 2.87 1.94 1.41 0.89 0.66 0.67 0.67 0.35 0.28 0.09 0.03 0.00 0.00 0.00 0.00 0.00 0.00 0.00 0.00
0.12 0.27 0.21 0.09 0.12 0.15 0.25 0.45 1.12 1.01 1.35 1.36 1.40 2.02 1.95 1.35 0.84 0.63 0.74 0.66 0.42 0.27 0.16 0.12 0.02 0.00 0.00 0.00 0.00 0.00 0.00 0.00
0.08 0.14 0.21 0.18 0.15 0.09 0.18 0.31 0.46 1.16 1.98 1.70 1.28 1.23 1.73 1.35 0.93 0.59 0.61 0.65 0.49 0.26 0.21 0.16 0.05 0.00 0.00 0.00 0.00 0.00 0.00 0.00
0.01 0.08 0.12 0.17 0.16 0.09 0.07 0.11 0.15 0.38 2.32 2.02 1.77 1.02 1.13 1.04 1.10 0.69 0.63 0.83 0.55 0.51 0.31 0.15 0.06 0.01 0.00 0.00 0.00 0.00 0.00 0.00
0.00 0.02 0.03 0.14 0.10 0.10 0.13 0.15 0.22 0.56 1.30 1.84 2.05 1.13 1.28 1.04 1.13 0.91 0.77 1.15 0.67 0.52 0.24 0.07 0.02 0.00 0.00 0.00 0.00 0.00 0.00 0.00
0.01 0.01 0.01 0.05 0.06 0.04 0.09 0.14 0.42 0.75 0.92 1.00 1.46 0.94 0.90 0.97 0.74 0.71 0.62 1.04 0.63 0.30 0.11 0.04 0.02 0.00 0.00 0.00 0.00 0.00 0.00 0.00
0.02 0.02 0.01 0.01 0.01 0.01 0.02 0.09 0.35 0.68 0.73 0.33 0.97 0.75 0.54 0.88 0.68 0.63 0.43 0.87 0.47 0.27 0.12 0.05 0.01 0.00 0.00 0.00 0.00 0.00 0.00 0.00
0.01 0.02 0.01 0.01 0.02 0.03 0.04 0.07 0.38 0.43 0.54 0.21 0.19 0.33 0.49 0.87 0.79 0.70 0.37 0.56 0.37 0.29 0.16 0.05 0.00 0.00 0.00 0.00 0.00 0.00 0.00 0.00
0.01 0.02 0.01 0.01 0.01 0.01 0.04 0.04 0.16 0.35 0.49 0.31 0.15 0.10 0.20 0.42 0.65 0.50 0.42 0.39 0.34 0.26 0.23 0.10 0.01 0.00 0.00 0.00 0.00 0.00 0.00 0.00
0.01 0.02 0.01 0.03 0.03 0.07 0.11 0.20 0.15 0.21 0.35 0.37 0.15 0.09 0.08 0.13 0.34 0.61 0.44 0.33 0.24 0.19 0.15 0.08 0.01 0.00 0.00 0.00 0.00 0.00 0.00 0.00
0.01 0.02 0.03 0.04 0.07 0.10 0.18 0.26 0.22 0.16 0.19 0.28 0.22 0.17 0.17 0.12 0.22 0.36 0.60 0.31 0.14 0.19 0.14 0.07 0.01 0.00 0.00 0.00 0.00 0.00 0.00 0.00
0.02 0.02 0.02 0.04 0.07 0.04 0.18 0.34 0.18 0.12 0.15 0.26 0.34 0.25 0.32 0.30 0.29 0.24 0.27 0.29 0.15 0.18 0.16 0.09 0.03 0.00 0.00 0.00 0.00 0.00 0.00 0.00
0.01 0.01 0.01 0.01 0.02 0.04 0.11 0.23 0.20 0.06 0.07 0.14 0.36 0.47 0.39 0.51 0.48 0.47 0.36 0.10 0.10 0.10 0.11 0.07 0.03 0.00 0.00 0.00 0.00 0.00 0.00 0.00
0.01 0.01 0.01 0.01 0.01 0.02 0.03 0.07 0.17 0.07 0.04 0.03 0.08 0.39 0.66 0.52 0.44 0.45 0.54 0.25 0.06 0.01 0.02 0.02 0.02 0.02 0.01 0.00 0.01 0.01 0.00 0.00
0.01 0.01 0.01 0.01 0.01 0.03 0.04 0.06 0.15 0.12 0.05 0.02 0.04 0.10 0.34 0.61 0.44 0.39 0.48 0.33 0.12 0.03 0.00 0.00 0.01 0.02 0.02 0.03 0.11 0.11 0.06 0.01
0.00 0.00 0.01 0.01 0.01 0.02 0.02 0.03 0.06 0.03 0.01 0.01 0.02 0.08 0.14 0.36 0.58 0.41 0.34 0.37 0.30 0.08 0.04 0.02 0.02 0.01 0.01 0.02 0.09 0.14 0.14 0.12
0.00 0.01 0.00 0.01 0.01 0.01 0.02 0.01 0.02 0.03 0.03 0.02 0.02 0.02 0.09 0.16 0.33 0.47 0.47 0.37 0.35 0.22 0.11 0.04 0.04 0.10 0.04 0.02 0.01 0.08 0.12 0.04
0.00 0.00 0.01 0.01 0.01 0.01 0.01 0.01 0.02 0.05 0.03 0.02 0.01 0.02 0.04 0.07 0.17 0.22 0.37 0.45 0.48 0.42 0.26 0.15 0.09 0.19 0.22 0.18 0.04 0.02 0.07 0.04
0.00 0.00 0.00 0.01 0.01 0.01 0.01 0.01 0.00 0.00 0.01 0.00 0.00 0.01 0.02 0.04 0.05 0.05 0.11 0.22 0.49 0.55 0.60 0.37 0.23 0.22 0.26 0.18 0.15 0.08 0.08 0.10
0.00 0.00 0.00 0.00 0.01 0.01 0.01 0.01 0.00 0.00 0.00 0.00 0.00 0.00 0.00 0.00 0.01 0.02 0.02 0.07 0.14 0.30 0.37 0.24 0.27 0.23 0.22 0.17 0.12 0.06 0.04 0.05

GFSFLT2_prec_precacc24_102.txt.gz
Total_Precipitation_Accumulation
0.03 0.08 0.07 0.24 0.47 0.29 0.26 0.89 0.97 1.38 1.76 1.86 2.32 2.82 1.94 1.41 0.89 0.66 0.69 0.70 0.37 0.30 0.17 0.20 0.18 0.13 0.02 0.00 0.00 0.00 0.00 0.00
0.04 0.16 0.10 0.06 0.08 0.10 0.20 0.44 1.05 0.80 1.20 1.29 1.35 2.00 1.93 1.35 0.84 0.64 0.74 0.67 0.48 0.31 0.27 0.33 0.23 0.14 0.04 0.00 0.00 0.00 0.00 0.00
0.01 0.03 0.09 0.12 0.07 0.04 0.16 0.31 0.39 0.88 1.26 1.38 1.18 1.19 1.71 1.35 0.94 0.60 0.62 0.68 0.56 0.42 0.38 0.42 0.29 0.15 0.05 0.00 0.00 0.00 0.00 0.00
0.00 0.03 0.03 0.02 0.04 0.03 0.05 0.09 0.13 0.16 1.08 1.32 1.64 0.97 1.12 1.03 1.12 0.74 0.64 0.86 0.62 0.66 0.54 0.41 0.26 0.10 0.04 0.01 0.01 0.00 0.00 0.00
0.00 0.01 0.02 0.04 0.03 0.06 0.11 0.15 0.20 0.23 0.34 1.01 1.94 1.08 1.27 1.03 1.13 0.91 0.77 1.17 0.78 0.73 0.57 0.33 0.16 0.09 0.04 0.04 0.03 0.00 0.00 0.00
0.00 0.00 0.01 0.04 0.04 0.03 0.08 0.13 0.21 0.20 0.26 0.59 1.35 0.91 0.90 0.97 0.74 0.71 0.62 1.09 0.72 0.49 0.34 0.20 0.14 0.10 0.04 0.03 0.00 0.00 0.00 0.00
0.02 0.02 0.00 0.01 0.01 0.01 0.02 0.06 0.13 0.23 0.29 0.25 0.94 0.75 0.54 0.88 0.68 0.64 0.46 0.97 0.55 0.31 0.29 0.21 0.10 0.08 0.04 0.01 0.00 0.00 0.00 0.00
0.01 0.02 0.01 0.01 0.02 0.02 0.01 0.01 0.06 0.14 0.31 0.13 0.18 0.33 0.50 0.89 0.80 0.71 0.44 0.64 0.50 0.41 0.24 0.21 0.09 0.05 0.03 0.00 0.00 0.00 0.00 0.00
0.01 0.01 0.00 0.01 0.01 0.01 0.01 0.01 0.05 0.12 0.37 0.27 0.14 0.10 0.22 0.43 0.66 0.52 0.48 0.49 0.41 0.54 0.49 0.27 0.10 0.05 0.02 0.00 0.00 0.00 0.00 0.00
0.00 0.02 0.01 0.02 0.02 0.02 0.02 0.04 0.08 0.11 0.30 0.37 0.15 0.10 0.09 0.15 0.36 0.62 0.47 0.49 0.32 0.33 0.47 0.32 0.12 0.04 0.02 0.00 0.00 0.00 0.00 0.00
0.01 0.02 0.01 0.02 0.05 0.03 0.10 0.08 0.11 0.13 0.17 0.28 0.22 0.18 0.18 0.15 0.24 0.37 0.65 0.41 0.33 0.41 0.36 0.33 0.12 0.03 0.01 0.00 0.00 0.00 0.00 0.00
0.01 0.01 0.01 0.02 0.03 0.02 0.08 0.14 0.07 0.09 0.14 0.25 0.34 0.25 0.33 0.33 0.31 0.24 0.31 0.48 0.40 0.46 0.54 0.33 0.17 0.03 0.01 0.00 0.00 0.00 0.00 0.00
0.01 0.01 0.01 0.01 0.01 0.02 0.05 0.07 0.08 0.04 0.07 0.14 0.36 0.48 0.41 0.52 0.48 0.47 0.37 0.16 0.33 0.25 0.50 0.43 0.21 0.03 0.01 0.00 0.00 0.00 0.00 0.00
0.00 0.01 0.01 0.01 0.01 0.02 0.02 0.01 0.02 0.02 0.04 0.04 0.11 0.42 0.69 0.55 0.44 0.46 0.55 0.25 0.12 0.14 0.27 0.36 0.19 0.03 0.00 0.00 0.02 0.01 0.01 0.00
0.00 0.00 0.00 0.00 0.01 0.03 0.04 0.04 0.04 0.02 0.01 0.02 0.04 0.12 0.38 0.67 0.52 0.42 0.55 0.35 0.13 0.07 0.08 0.09 0.06 0.03 0.01 0.02 0.10 0.10 0.05 0.01
0.00 0.00 0.00 0.00 0.01 0.02 0.02 0.02 0.03 0.00 0.00 0.01 0.02 0.08 0.16 0.43 0.65 0.50 0.42 0.53 0.35 0.08 0.03 0.03 0.02 0.02 0.01 0.02 0.07 0.12 0.11 0.09
0.00 0.00 0.00 0.00 0.01 0.01 0.02 0.01 0.01 0.01 0.00 0.00 0.01 0.02 0.09 0.18 0.41 0.54 0.50 0.44 0.41 0.25 0.13 0.05 0.04 0.09 0.03 0.01 0.01 0.07 0.11 0.03
0.00 0.00 0.01 0.01 0.01 0.01 0.01 0.01 0.01 0.03 0.01 0.00 0.00 0.02 0.05 0.08 0.20 0.26 0.39 0.46 0.52 0.50 0.28 0.19 0.10 0.17 0.17 0.17 0.04 0.02 0.05 0.03
0.00 0.00 0.00 0.01 0.01 0.01 0.01 0.01 0.00 0.00 0.01 0.00 0.00 0.01 0.03 0.05 0.07 0.07 0.11 0.22 0.46 0.59 0.67 0.42 0.26 0.22 0.26 0.18 0.15 0.08 0.07 0.08
0.00 0.00 0.00 0.00 0.01 0.00 0.00 0.01 0.00 0.00 0.00 0.00 0.00 0.00 0.00 0.01 0.03 0.04 0.02 0.05 0.12 0.28 0.40 0.40 0.40 0.33 0.26 0.18 0.13 0.07 0.05 0.05

GFSFLT2_prec_precacc24_108.txt.gz
Total_Precipitation_Accumulation
0.00 0.00 0.00 0.00 0.01 0.03 0.04 0.05 0.19 0.36 0.39 0.86 1.41 2.12 1.80 1.38 0.83 0.62 0.69 0.70 0.37 0.32 0.25 0.35 0.48 0.44 0.21 0.18 0.07 0.08 0.07 0.30
0.00 0.01 0.00 0.00 0.00 0.02 0.07 0.16 0.26 0.26 0.38 0.61 0.78 1.12 1.34 1.21 0.80 0.58 0.72 0.67 0.48 0.37 0.47 0.60 0.53 0.42 0.31 0.25 0.15 0.08 0.02 0.03
0.00 0.01 0.00 0.00 0.00 0.01 0.06 0.16 0.16 0.15 0.38 0.77 0.79 0.79 1.08 1.05 0.85 0.58 0.62 0.69 0.58 0.48 0.60 0.63 0.50 0.40 0.27 0.20 0.11 0.02 0.04 0.00
0.00 0.01 0.00 0.00 0.00 0.02 0.04 0.06 0.06 0.06 0.15 0.72 1.03 0.53 0.88 0.70 0.86 0.72 0.68 0.89 0.65 0.73 0.60 0.46 0.36 0.25 0.17 0.12 0.04 0.04 0.04 0.00
0.00 0.00 0.01 0.00 0.00 0.01 0.03 0.05 0.07 0.08 0.15 0.62 1.48 0.67 0.83 0.72 0.83 0.79 0.79 1.22 0.84 0.79 0.59 0.42 0.26 0.24 0.22 0.14 0.19 0.12 0.04 0.00
0.00 0.00 0.00 0.01 0.00 0.00 0.01 0.04 0.07 0.07 0.09 0.14 0.84 0.62 0.65 0.80 0.54 0.55 0.65 1.13 0.78 0.55 0.38 0.31 0.32 0.34 0.28 0.23 0.17 0.11 0.04 0.00
0.00 0.00 0.00 0.00 0.00 0.00 0.00 0.01 0.03 0.11 0.11 0.04 0.36 0.53 0.44 0.79 0.51 0.49 0.50 1.07 0.65 0.37 0.41 0.31 0.34 0.35 0.35 0.30 0.12 0.15 0.03 0.00
0.00 0.00 0.00 0.00 0.00 0.00 0.00 0.00 0.01 0.04 0.09 0.06 0.04 0.21 0.36 0.79 0.68 0.62 0.47 0.73 0.61 0.52 0.33 0.39 0.37 0.48 0.31 0.24 0.19 0.16 0.02 0.00
0.00 0.00 0.00 0.00 0.00 0.00 0.00 0.00 0.01 0.03 0.05 0.09 0.04 0.04 0.16 0.42 0.58 0.45 0.50 0.61 0.52 0.69 0.62 0.46 0.47 0.72 0.42 0.26 0.14 0.10 0.02 0.00
0.00 0.00 0.00 0.00 0.00 0.00 0.00 0.00 0.01 0.03 0.06 0.09 0.04 0.03 0.07 0.16 0.30 0.51 0.45 0.60 0.40 0.44 0.68 0.50 0.45 0.63 0.61 0.31 0.19 0.06 0.02 0.00
0.00 0.00 0.00 0.00 0.00 0.00 0.00 0.00 0.01 0.03 0.06 0.11 0.12 0.09 0.08 0.13 0.18 0.28 0.55 0.42 0.36 0.46 0.55 0.60 0.40 0.50 0.62 0.42 0.19 0.03 0.01 0.00
0.00 0.00 0.00 0.00 0.00 0.00 0.00 0.00 0.00 0.01 0.04 0.15 0.21 0.16 0.23 0.29 0.24 0.20 0.32 0.48 0.43 0.58 0.69 0.65 0.53 0.43 0.55 0.51 0.14 0.00 0.00 0.00
0.00 0.00 0.00 0.00 0.00 0.00 0.00 0.00 0.00 0.01 0.03 0.08 0.31 0.39 0.38 0.50 0.48 0.44 0.35 0.16 0.37 0.46 0.81 0.86 0.72 0.50 0.59 0.58 0.20 0.04 0.00 0.00
0.00 0.00 0.00 0.00 0.00 0.00 0.00 0.00 0.00 0.01 0.01 0.03 0.10 0.41 0.68 0.59 0.47 0.46 0.55 0.25 0.15 0.28 0.59 1.02 0.88 0.53 0.41 0.20 0.10 0.03 0.04 0.01
0.00 0.00 0.00 0.00 0.00 0.00 0.00 0.00 0.01 0.01 0.01 0.02 0.04 0.13 0.41 0.70 0.56 0.42 0.55 0.36 0.14 0.09 0.22 0.66 0.66 0.54 0.18 0.06 0.02 0.02 0.03 0.03
0.00 0.00 0.00 0.00 0.00 0.00 0.00 0.00 0.00 0.00 0.00 0.01 0.02 0.09 0.17 0.45 0.68 0.52 0.43 0.55 0.36 0.10 0.04 0.26 0.48 0.32 0.20 0.10 0.02 0.01 0.02 0.02
0.00 0.00 0.00 0.00 0.00 0.00 0.00 0.00 0.00 0.00 0.00 0.00 0.01 0.03 0.10 0.21 0.43 0.56 0.52 0.44 0.43 0.30 0.14 0.08 0.23 0.25 0.17 0.11 0.10 0.08 0.08 0.03
0.00 0.00 0.00 0.00 0.00 0.00 0.00 0.00 0.00 0.00 0.00 0.00 0.01 0.02 0.05 0.09 0.24 0.30 0.42 0.47 0.54 0.48 0.24 0.15 0.09 0.16 0.17 0.14 0.09 0.07 0.06 0.04
0.00 0.00 0.00 0.01 0.00 0.00 0.00 0.00 0.00 0.00 0.00 0.00 0.00 0.01 0.03 0.05 0.10 0.11 0.13 0.24 0.46 0.56 0.64 0.41 0.17 0.11 0.11 0.08 0.07 0.04 0.04 0.04
0.00 0.00 0.00 0.00 0.00 0.00 0.00 0.00 0.00 0.00 0.00 0.00 0.00 0.00 0.00 0.01 0.04 0.08 0.05 0.06 0.13 0.24 0.34 0.44 0.47 0.32 0.19 0.14 0.09 0.05 0.05 0.04

GFSFLT2_prec_precacc24_111.txt.gz
Total_Precipitation_Accumulation
0.00 0.00 0.00 0.00 0.01 0.03 0.04 0.05 0.16 0.29 0.35 0.35 0.32 1.07 1.57 1.34 0.74 0.58 0.68 0.70 0.37 0.34 0.29 0.39 0.57 0.53 0.22 0.24 0.28 0.30 0.22 0.52
0.00 0.00 0.00 0.00 0.00 0.02 0.07 0.16 0.26 0.25 0.35 0.36 0.24 0.43 0.83 0.96 0.72 0.55 0.71 0.67 0.48 0.39 0.48 0.62 0.55 0.42 0.31 0.28 0.25 0.24 0.07 0.11
0.00 0.00 0.00 0.00 0.00 0.01 0.06 0.16 0.16 0.15 0.18 0.22 0.28 0.38 0.55 0.73 0.63 0.50 0.64 0.69 0.59 0.49 0.60 0.63 0.50 0.40 0.27 0.20 0.13 0.06 0.11 0.06
0.00 0.00 0.00 0.00 0.00 0.02 0.04 0.06 0.05 0.06 0.07 0.16 0.18 0.23 0.64 0.54 0.62 0.63 0.67 0.89 0.65 0.74 0.60 0.46 0.36 0.25 0.17 0.12 0.04 0.05 0.08 0.07
0.00 0.00 0.00 0.00 0.00 0.01 0.03 0.04 0.04 0.08 0.12 0.30 0.52 0.49 0.76 0.66 0.62 0.61 0.79 1.23 0.84 0.79 0.59 0.42 0.26 0.24 0.22 0.14 0.20 0.14 0.11 0.07
0.00 0.00 0.00 0.00 0.00 0.00 0.01 0.02 0.02 0.04 0.09 0.11 0.65 0.56 0.63 0.77 0.46 0.49 0.66 1.14 0.80 0.55 0.38 0.31 0.32 0.34 0.28 0.23 0.17 0.15 0.13 0.06
0.00 0.00 0.00 0.00 0.00 0.00 0.00 0.01 0.02 0.03 0.06 0.03 0.36 0.53 0.44 0.78 0.48 0.45 0.49 1.10 0.66 0.37 0.41 0.31 0.34 0.35 0.35 0.30 0.13 0.20 0.10 0.07
0.00 0.00 0.00 0.00 0.00 0.00 0.00 0.00 0.01 0.02 0.03 0.02 0.04 0.21 0.36 0.78 0.66 0.57 0.46 0.74 0.63 0.52 0.33 0.39 0.37 0.48 0.32 0.25 0.20 0.23 0.07 0.04
0.00 0.00 0.00 0.00 0.00 0.00 0.00 0.00 0.01 0.02 0.02 0.02 0.02 0.03 0.16 0.41 0.52 0.42 0.50 0.62 0.53 0.69 0.62 0.46 0.47 0.73 0.43 0.29 0.18 0.24 0.11 0.02
0.00 0.00 0.00 0.00 0.00 0.00 0.00 0.00 0.01 0.03 0.05 0.05 0.03 0.03 0.07 0.15 0.25 0.47 0.45 0.60 0.43 0.46 0.69 0.50 0.45 0.65 0.64 0.35 0.28 0.23 0.25 0.03
0.00 0.00 0.00 0.00 0.00 0.00 0.00 0.00 0.01 0.03 0.06 0.09 0.10 0.08 0.07 0.11 0.14 0.25 0.52 0.41 0.36 0.48 0.57 0.60 0.41 0.51 0.67 0.50 0.36 0.26 0.19 0.02
0.00 0.00 0.00 0.00 0.00 0.00 0.00 0.00 0.00 0.01 0.03 0.12 0.17 0.15 0.16 0.18 0.20 0.17 0.27 0.47 0.43 0.59 0.70 0.65 0.53 0.43 0.59 0.65 0.36 0.36 0.17 0.01
0.00 0.00 0.00 0.00 0.00 0.00 0.00 0.00 0.00 0.00 0.01 0.03 0.23 0.33 0.28 0.32 0.29 0.33 0.28 0.15 0.37 0.47 0.81 0.86 0.73 0.52 0.77 0.86 0.69 0.34 0.23 0.03
0.00 0.00 0.00 0.00 0.00 0.00 0.00 0.00 0.00 0.01 0.00 0.01 0.06 0.29 0.47 0.42 0.36 0.31 0.46 0.24 0.14 0.28 0.61 1.03 0.89 0.58 0.63 0.69 0.51 0.30 0.13 0.03
0.00 0.00 0.00 0.00 0.00 0.00 0.00 0.00 0.01 0.01 0.01 0.01 0.03 0.09 0.35 0.61 0.49 0.37 0.52 0.35 0.14 0.09 0.22 0.66 0.66 0.63 0.37 0.43 0.15 0.12 0.06 0.04
0.00 0.00 0.00 0.00 0.00 0.00 0.00 0.00 0.00 0.00 0.00 0.01 0.02 0.09 0.17 0.45 0.68 0.51 0.42 0.55 0.36 0.10 0.04 0.26 0.50 0.47 0.48 0.40 0.06 0.01 0.02 0.03
0.00 0.02 0.03 0.00 0.00 0.00 0.00 0.00 0.00 0.00 0.00 0.00 0.01 0.03 0.10 0.21 0.43 0.56 0.52 0.44 0.43 0.30 0.14 0.08 0.24 0.31 0.36 0.27 0.16 0.08 0.06 0.03
0.00 0.00 0.03 0.05 0.01 0.00 0.00 0.00 0.00 0.00 0.00 0.00 0.01 0.02 0.05 0.09 0.23 0.30 0.42 0.47 0.54 0.48 0.24 0.15 0.08 0.15 0.29 0.21 0.15 0.13 0.08 0.05
0.00 0.00 0.00 0.02 0.01 0.00 0.00 0.00 0.00 0.00 0.00 0.00 0.00 0.01 0.03 0.05 0.10 0.11 0.13 0.24 0.45 0.55 0.63 0.39 0.16 0.08 0.10 0.14 0.16 0.13 0.12 0.09
0.00 0.00 0.00 0.00 0.01 0.01 0.00 0.01 0.01 0.00 0.00 0.00 0.00 0.00 0.00 0.01 0.04 0.08 0.05 0.06 0.13 0.23 0.32 0.43 0.44 0.30 0.18 0.14 0.13 0.10 0.08 0.05

GFSFLT2_prec_precacc24_114.txt.gz
Total_Precipitation_Accumulation
0.00 0.00 0.00 0.00 0.01 0.03 0.04 0.03 0.08 0.13 0.25 0.29 0.18 0.48 0.62 0.54 0.47 0.47 0.63 0.62 0.36 0.33 0.29 0.39 0.57 0.53 0.22 0.26 0.28 0.31 0.24 0.69
0.00 0.00 0.00 0.00 0.00 0.02 0.07 0.16 0.25 0.21 0.28 0.33 0.20 0.17 0.10 0.14 0.38 0.39 0.63 0.64 0.48 0.39 0.48 0.62 0.55 0.46 0.47 0.41 0.31 0.25 0.07 0.12
0.00 0.00 0.00 0.00 0.00 0.01 0.06 0.16 0.16 0.15 0.18 0.22 0.22 0.23 0.09 0.11 0.20 0.32 0.62 0.66 0.59 0.49 0.60 0.63 0.50 0.43 0.31 0.24 0.18 0.13 0.12 0.06
0.00 0.00 0.00 0.00 0.00 0.02 0.04 0.06 0.05 0.06 0.07 0.11 0.13 0.12 0.11 0.17 0.29 0.41 0.66 0.89 0.65 0.74 0.60 0.46 0.36 0.25 0.17 0.13 0.05 0.06 0.08 0.07
0.00 0.00 0.00 0.00 0.00 0.01 0.03 0.04 0.04 0.08 0.12 0.18 0.18 0.19 0.19 0.29 0.44 0.50 0.78 1.23 0.84 0.79 0.59 0.42 0.26 0.24 0.22 0.14 0.20 0.14 0.11 0.07
0.00 0.00 0.00 0.00 0.00 0.00 0.01 0.02 0.02 0.03 0.06 0.08 0.13 0.17 0.29 0.56 0.41 0.46 0.66 1.14 0.80 0.55 0.38 0.31 0.32 0.34 0.28 0.23 0.17 0.15 0.13 0.07
0.00 0.00 0.00 0.00 0.00 0.00 0.00 0.01 0.02 0.02 0.03 0.03 0.24 0.45 0.39 0.75 0.48 0.45 0.49 1.10 0.66 0.37 0.41 0.31 0.34 0.35 0.35 0.30 0.13 0.20 0.11 0.12
0.00 0.00 0.00 0.00 0.00 0.00 0.00 0.00 0.01 0.01 0.01 0.01 0.03 0.20 0.36 0.78 0.66 0.57 0.47 0.76 0.64 0.52 0.33 0.39 0.37 0.48 0.32 0.25 0.20 0.23 0.08 0.08
0.00 0.00 0.00 0.00 0.00 0.00 0.00 0.00 0.01 0.01 0.01 0.01 0.01 0.03 0.15 0.41 0.52 0.42 0.50 0.62 0.54 0.69 0.62 0.46 0.47 0.73 0.43 0.29 0.18 0.24 0.12 0.04
0.00 0.00 0.00 0.00 0.00 0.00 0.00 0.00 0.01 0.02 0.01 0.02 0.02 0.02 0.06 0.13 0.25 0.47 0.45 0.60 0.43 0.46 0.69 0.50 0.45 0.65 0.64 0.36 0.28 0.23 0.28 0.07
0.00 0.00 0.00 0.00 0.00 0.00 0.00 0.00 0.01 0.02 0.04 0.04 0.05 0.04 0.06 0.09 0.09 0.23 0.51 0.41 0.36 0.48 0.57 0.60 0.41 0.51 0.67 0.51 0.36 0.28 0.32 0.27
0.00 0.00 0.00 0.00 0.00 0.01 0.00 0.00 0.00 0.01 0.03 0.09 0.10 0.09 0.09 0.12 0.13 0.14 0.27 0.47 0.43 0.59 0.70 0.65 0.54 0.44 0.59 0.66 0.36 0.38 0.31 0.36
0.00 0.00 0.00 0.00 0.00 0.01 0.00 0.00 0.00 0.00 0.01 0.03 0.20 0.25 0.19 0.21 0.16 0.23 0.27 0.15 0.37 0.47 0.82 0.87 0.74 0.53 0.78 0.89 0.70 0.36 0.35 0.30
0.00 0.00 0.00 0.00 0.00 0.01 0.04 0.02 0.00 0.00 0.00 0.01 0.05 0.26 0.40 0.34 0.28 0.22 0.39 0.24 0.15 0.29 0.62 1.04 0.91 0.60 0.66 0.75 0.58 0.39 0.29 0.35
0.00 0.00 0.00 0.00 0.00 0.06 0.08 0.07 0.04 0.02 0.01 0.00 0.01 0.05 0.29 0.50 0.36 0.25 0.47 0.34 0.14 0.10 0.22 0.67 0.67 0.64 0.38 0.45 0.20 0.20 0.14 0.25
0.00 0.00 0.00 0.00 0.00 0.00 0.01 0.00 0.00 0.00 0.00 0.01 0.01 0.01 0.05 0.30 0.48 0.31 0.31 0.52 0.36 0.10 0.05 0.26 0.50 0.48 0.50 0.45 0.10 0.04 0.05 0.14
0.00 0.03 0.12 0.11 0.08 0.04 0.01 0.01 0.00 0.00 0.00 0.00 0.01 0.02 0.04 0.10 0.29 0.41 0.41 0.39 0.42 0.30 0.14 0.08 0.24 0.31 0.37 0.35 0.31 0.14 0.10 0.07
0.00 0.00 0.05 0.16 0.13 0.15 0.12 0.07 0.02 0.01 0.00 0.00 0.01 0.02 0.03 0.07 0.20 0.28 0.40 0.44 0.52 0.47 0.23 0.15 0.08 0.15 0.30 0.25 0.26 0.21 0.13 0.09
0.00 0.00 0.00 0.03 0.03 0.03 0.02 0.02 0.03 0.01 0.00 0.00 0.01 0.03 0.03 0.05 0.10 0.11 0.12 0.23 0.45 0.55 0.63 0.39 0.16 0.08 0.10 0.15 0.22 0.20 0.18 0.19
0.00 0.00 0.00 0.00 0.01 0.01 0.00 0.01 0.03 0.01 0.00 0.00 0.00 0.01 0.02 0.01 0.04 0.08 0.05 0.06 0.14 0.24 0.33 0.43 0.44 0.29 0.17 0.13 0.14 0.19 0.20 0.18

GFSFLT2_prec_precacc24_117.txt.gz
Total_Precipitation_Accumulation
0.00 0.00 0.00 0.00 0.01 0.01 0.01 0.01 0.02 0.05 0.16 0.20 0.09 0.06 0.07 0.15 0.13 0.20 0.29 0.39 0.31 0.31 0.27 0.38 0.57 0.53 0.23 0.26 0.29 0.31 0.24 0.69
0.00 0.00 0.00 0.00 0.00 0.01 0.04 0.05 0.11 0.09 0.15 0.20 0.10 0.10 0.04 0.04 0.06 0.07 0.20 0.39 0.46 0.38 0.47 0.61 0.57 0.53 0.54 0.46 0.35 0.26 0.08 0.12
0.00 0.00 0.00 0.00 0.00 0.01 0.04 0.10 0.12 0.13 0.13 0.17 0.14 0.18 0.08 0.04 0.02 0.03 0.18 0.35 0.52 0.49 0.59 0.63 0.53 0.44 0.31 0.24 0.20 0.20 0.12 0.06
0.00 0.00 0.00 0.00 0.00 0.02 0.04 0.05 0.05 0.05 0.06 0.10 0.12 0.12 0.10 0.07 0.07 0.10 0.23 0.64 0.59 0.72 0.60 0.46 0.36 0.25 0.17 0.13 0.05 0.15 0.09 0.08
0.00 0.00 0.00 0.00 0.00 0.01 0.03 0.04 0.04 0.08 0.12 0.18 0.18 0.16 0.14 0.10 0.18 0.14 0.27 0.95 0.81 0.77 0.59 0.42 0.26 0.24 0.22 0.14 0.20 0.14 0.12 0.09
0.00 0.00 0.00 0.00 0.00 0.00 0.01 0.02 0.02 0.03 0.06 0.08 0.10 0.11 0.15 0.17 0.17 0.23 0.34 1.05 0.80 0.55 0.38 0.31 0.32 0.34 0.28 0.23 0.17 0.15 0.13 0.07
0.00 0.00 0.00 0.00 0.00 0.00 0.00 0.01 0.02 0.02 0.03 0.03 0.06 0.22 0.25 0.35 0.28 0.30 0.43 1.09 0.66 0.37 0.41 0.31 0.34 0.35 0.35 0.30 0.13 0.20 0.11 0.12
0.00 0.00 0.00 0.00 0.00 0.00 0.00 0.00 0.01 0.01 0.01 0.01 0.02 0.10 0.21 0.60 0.54 0.51 0.44 0.75 0.64 0.52 0.33 0.39 0.37 0.48 0.32 0.25 0.20 0.23 0.08 0.08
0.00 0.00 0.00 0.00 0.00 0.00 0.00 0.00 0.01 0.01 0.00 0.01 0.01 0.02 0.12 0.37 0.47 0.39 0.49 0.62 0.54 0.69 0.62 0.46 0.47 0.73 0.43 0.29 0.18 0.24 0.12 0.04
0.00 0.00 0.00 0.00 0.00 0.00 0.00 0.00 0.01 0.01 0.01 0.01 0.01 0.02 0.05 0.13 0.24 0.46 0.45 0.60 0.43 0.46 0.69 0.50 0.45 0.65 0.64 0.36 0.28 0.23 0.28 0.07
0.00 0.00 0.00 0.00 0.00 0.00 0.00 0.00 0.01 0.02 0.02 0.02 0.02 0.02 0.05 0.08 0.08 0.22 0.51 0.41 0.36 0.48 0.57 0.60 0.41 0.51 0.67 0.52 0.37 0.28 0.32 0.27
0.00 0.00 0.00 0.00 0.00 0.01 0.00 0.00 0.00 0.01 0.02 0.03 0.03 0.04 0.04 0.09 0.08 0.06 0.26 0.47 0.43 0.59 0.70 0.65 0.54 0.44 0.60 0.67 0.38 0.38 0.31 0.37
0.00 0.00 0.00 0.00 0.00 0.01 0.01 0.00 0.00 0.00 0.01 0.02 0.09 0.08 0.10 0.09 0.10 0.12 0.15 0.15 0.38 0.47 0.83 0.88 0.75 0.54 0.82 0.93 0.71 0.37 0.36 0.31
0.00 0.00 0.00 0.00 0.00 0.01 0.05 0.03 0.03 0.06 0.04 0.01 0.04 0.17 0.22 0.21 0.16 0.10 0.19 0.21 0.15 0.30 0.63 1.06 0.94 0.62 0.69 0.78 0.63 0.41 0.30 0.37
0.00 0.00 0.00 0.00 0.00 0.06 0.09 0.11 0.14 0.15 0.05 0.00 0.01 0.04 0.24 0.37 0.25 0.15 0.38 0.26 0.13 0.10 0.23 0.68 0.69 0.65 0.40 0.47 0.22 0.22 0.15 0.26
0.00 0.00 0.00 0.01 0.03 0.02 0.02 0.01 0.00 0.00 0.00 0.00 0.00 0.01 0.03 0.24 0.40 0.21 0.22 0.48 0.33 0.09 0.05 0.27 0.51 0.49 0.52 0.47 0.10 0.05 0.05 0.15
0.00 0.03 0.12 0.12 0.10 0.07 0.06 0.08 0.06 0.02 0.00 0.00 0.01 0.02 0.01 0.06 0.20 0.22 0.19 0.29 0.33 0.25 0.13 0.09 0.25 0.32 0.37 0.36 0.33 0.15 0.13 0.12
0.00 0.00 0.05 0.17 0.16 0.18 0.18 0.15 0.11 0.10 0.04 0.03 0.02 0.06 0.03 0.04 0.08 0.13 0.16 0.22 0.31 0.35 0.20 0.14 0.08 0.16 0.31 0.25 0.26 0.22 0.19 0.21
0.00 0.00 0.00 0.03 0.04 0.06 0.04 0.05 0.06 0.04 0.06 0.06 0.06 0.05 0.03 0.03 0.08 0.09 0.07 0.16 0.35 0.48 0.58 0.37 0.16 0.09 0.11 0.16 0.22 0.20 0.20 0.26
0.00 0.00 0.00 0.00 0.01 0.01 0.00 0.02 0.05 0.03 0.01 0.02 0.01 0.02 0.03 0.01 0.05 0.09 0.04 0.05 0.12 0.22 0.32 0.43 0.44 0.29 0.17 0.13 0.15 0.19 0.22 0.19

GFSFLT2_prec_precacc24_120.txt.gz
Total_Precipitation_Accumulation
0.00 0.00 0.00 0.00 0.00 0.00 0.00 0.00 0.01 0.01 0.12 0.17 0.08 0.02 0.01 0.02 0.01 0.01 0.04 0.15 0.21 0.27 0.26 0.38 0.57 0.53 0.23 0.26 0.29 0.31 0.24 0.69
0.00 0.00 0.00 0.00 0.00 0.00 0.00 0.00 0.00 0.02 0.12 0.14 0.06 0.05 0.02 0.01 0.02 0.01 0.01 0.08 0.26 0.36 0.46 0.61 0.57 0.53 0.54 0.46 0.35 0.26 0.08 0.12
0.00 0.00 0.00 0.00 0.00 0.00 0.01 0.02 0.03 0.06 0.08 0.07 0.08 0.12 0.07 0.02 0.02 0.03 0.08 0.10 0.23 0.44 0.59 0.63 0.53 0.45 0.31 0.24 0.22 0.23 0.13 0.06
0.00 0.00 0.00 0.00 0.00 0.01 0.02 0.04 0.04 0.05 0.05 0.07 0.09 0.06 0.08 0.05 0.07 0.09 0.10 0.21 0.34 0.52 0.58 0.46 0.36 0.25 0.17 0.13 0.09 0.19 0.09 0.08
0.00 0.00 0.00 0.00 0.00 0.01 0.02 0.04 0.04 0.07 0.11 0.17 0.17 0.16 0.13 0.09 0.17 0.11 0.14 0.31 0.44 0.57 0.55 0.42 0.26 0.24 0.22 0.14 0.21 0.15 0.12 0.09
0.00 0.00 0.00 0.00 0.00 0.00 0.01 0.02 0.03 0.03 0.06 0.08 0.10 0.11 0.12 0.13 0.15 0.18 0.12 0.30 0.46 0.46 0.37 0.31 0.32 0.34 0.28 0.23 0.17 0.15 0.13 0.07
0.00 0.00 0.00 0.00 0.00 0.00 0.00 0.01 0.02 0.02 0.03 0.03 0.05 0.08 0.05 0.09 0.16 0.23 0.18 0.32 0.41 0.32 0.40 0.32 0.34 0.35 0.35 0.30 0.13 0.20 0.11 0.12
0.00 0.00 0.00 0.00 0.00 0.00 0.00 0.00 0.01 0.01 0.01 0.01 0.02 0.05 0.07 0.11 0.22 0.35 0.28 0.28 0.39 0.45 0.31 0.39 0.37 0.48 0.32 0.25 0.20 0.23 0.08 0.08
0.00 0.00 0.00 0.00 0.00 0.00 0.00 0.00 0.01 0.01 0.00 0.01 0.01 0.02 0.07 0.10 0.17 0.27 0.36 0.44 0.36 0.63 0.61 0.45 0.47 0.73 0.43 0.29 0.18 0.24 0.12 0.04
0.00 0.00 0.00 0.00 0.00 0.00 0.00 0.00 0.00 0.01 0.01 0.01 0.01 0.02 0.05 0.10 0.13 0.33 0.35 0.50 0.36 0.44 0.69 0.50 0.45 0.65 0.64 0.36 0.28 0.23 0.28 0.07
0.00 0.00 0.00 0.00 0.00 0.01 0.01 0.00 0.00 0.01 0.01 0.01 0.01 0.01 0.04 0.07 0.07 0.16 0.47 0.37 0.35 0.47 0.57 0.60 0.41 0.51 0.67 0.52 0.37 0.28 0.32 0.27
0.00 0.00 0.00 0.00 0.00 0.01 0.00 0.00 0.00 0.00 0.01 0.02 0.02 0.02 0.03 0.08 0.07 0.03 0.26 0.46 0.43 0.59 0.70 0.65 0.54 0.44 0.60 0.68 0.38 0.38 0.31 0.37
0.00 0.00 0.00 0.00 0.00 0.01 0.01 0.00 0.00 0.01 0.01 0.01 0.02 0.03 0.06 0.07 0.09 0.02 0.02 0.13 0.37 0.48 0.84 0.89 0.76 0.55 0.84 0.94 0.72 0.37 0.36 0.31
0.00 0.00 0.00 0.00 0.00 0.01 0.05 0.03 0.03 0.06 0.04 0.01 0.04 0.06 0.09 0.15 0.06 0.03 0.03 0.04 0.11 0.30 0.63 1.07 0.95 0.64 0.71 0.79 0.64 0.42 0.30 0.37
0.00 0.00 0.00 0.00 0.00 0.06 0.09 0.12 0.15 0.15 0.07 0.01 0.01 0.04 0.14 0.18 0.18 0.06 0.14 0.14 0.06 0.07 0.23 0.69 0.70 0.67 0.42 0.49 0.23 0.22 0.15 0.26
0.00 0.00 0.00 0.01 0.03 0.01 0.03 0.01 0.01 0.01 0.02 0.01 0.02 0.02 0.03 0.18 0.22 0.16 0.12 0.32 0.25 0.07 0.05 0.27 0.52 0.50 0.54 0.48 0.11 0.05 0.06 0.16
0.00 0.03 0.12 0.12 0.10 0.07 0.06 0.08 0.07 0.04 0.02 0.01 0.03 0.09 0.08 0.06 0.16 0.17 0.14 0.13 0.20 0.22 0.13 0.09 0.26 0.33 0.38 0.36 0.34 0.17 0.14 0.13
0.00 0.00 0.04 0.16 0.16 0.19 0.19 0.17 0.14 0.10 0.04 0.03 0.07 0.19 0.12 0.07 0.08 0.10 0.08 0.07 0.21 0.28 0.18 0.13 0.07 0.16 0.31 0.26 0.27 0.23 0.19 0.22
0.00 0.00 0.00 0.03 0.05 0.07 0.06 0.07 0.07 0.04 0.06 0.08 0.15 0.22 0.14 0.08 0.12 0.09 0.04 0.05 0.07 0.27 0.45 0.30 0.12 0.08 0.10 0.16 0.22 0.21 0.20 0.26
0.00 0.00 0.00 0.00 0.01 0.02 0.01 0.04 0.06 0.03 0.01 0.04 0.04 0.13 0.12 0.05 0.08 0.10 0.04 0.05 0.08 0.12 0.25 0.37 0.39 0.28 0.17 0.14 0.15 0.20 0.22 0.19

GFSFLT2_prec_precacc24_123.txt.gz
Total_Precipitation_Accumulation
0.00 0.00 0.00 0.00 0.00 0.00 0.00 0.00 0.00 0.00 0.06 0.11 0.08 0.02 0.01 0.02 0.00 0.00 0.02 0.04 0.03 0.06 0.20 0.37 0.57 0.53 0.23 0.26 0.29 0.31 0.24 0.71
0.00 0.00 0.00 0.00 0.00 0.00 0.00 0.00 0.00 0.00 0.05 0.08 0.06 0.05 0.02 0.01 0.02 0.01 0.00 0.02 0.06 0.12 0.32 0.50 0.55 0.53 0.54 0.46 0.35 0.26 0.08 0.13
0.00 0.00 0.00 0.00 0.00 0.00 0.00 0.00 0.00 0.00 0.03 0.03 0.07 0.11 0.07 0.02 0.01 0.02 0.08 0.03 0.10 0.23 0.39 0.47 0.48 0.44 0.31 0.24 0.23 0.23 0.13 0.08
0.00 0.00 0.00 0.00 0.00 0.01 0.01 0.02 0.02 0.03 0.05 0.06 0.08 0.06 0.07 0.04 0.05 0.09 0.06 0.06 0.11 0.22 0.28 0.31 0.30 0.23 0.17 0.13 0.09 0.19 0.09 0.11
0.00 0.00 0.00 0.00 0.00 0.01 0.01 0.02 0.03 0.05 0.10 0.15 0.15 0.14 0.11 0.08 0.16 0.10 0.05 0.07 0.17 0.27 0.35 0.35 0.24 0.24 0.22 0.14 0.21 0.15 0.12 0.09
0.00 0.00 0.00 0.00 0.00 0.00 0.00 0.01 0.02 0.02 0.05 0.07 0.09 0.10 0.11 0.11 0.11 0.16 0.07 0.11 0.17 0.25 0.27 0.26 0.30 0.34 0.28 0.23 0.17 0.15 0.13 0.07
0.00 0.00 0.00 0.00 0.00 0.00 0.00 0.00 0.02 0.01 0.02 0.02 0.05 0.08 0.05 0.08 0.09 0.12 0.12 0.24 0.19 0.11 0.29 0.27 0.34 0.35 0.35 0.30 0.13 0.20 0.11 0.12
0.00 0.00 0.00 0.00 0.00 0.00 0.00 0.00 0.01 0.01 0.01 0.01 0.02 0.05 0.07 0.09 0.09 0.05 0.15 0.20 0.27 0.23 0.16 0.34 0.37 0.48 0.32 0.25 0.20 0.23 0.08 0.08
0.00 0.00 0.00 0.00 0.00 0.00 0.00 0.00 0.01 0.01 0.00 0.01 0.01 0.02 0.06 0.09 0.06 0.05 0.11 0.23 0.19 0.43 0.39 0.36 0.46 0.73 0.43 0.29 0.18 0.24 0.12 0.04
0.00 0.00 0.00 0.00 0.00 0.00 0.00 0.00 0.00 0.01 0.01 0.01 0.01 0.02 0.05 0.10 0.08 0.06 0.11 0.28 0.19 0.27 0.54 0.42 0.44 0.65 0.64 0.36 0.28 0.24 0.28 0.07
0.00 0.00 0.00 0.00 0.00 0.01 0.01 0.01 0.00 0.00 0.00 0.01 0.01 0.01 0.04 0.07 0.06 0.04 0.11 0.16 0.23 0.29 0.43 0.53 0.40 0.51 0.67 0.52 0.37 0.28 0.32 0.27
0.00 0.00 0.00 0.00 0.00 0.01 0.01 0.01 0.01 0.01 0.00 0.01 0.01 0.01 0.03 0.08 0.07 0.03 0.09 0.23 0.29 0.41 0.54 0.57 0.51 0.44 0.60 0.68 0.39 0.39 0.31 0.37
0.00 0.00 0.00 0.00 0.00 0.01 0.01 0.01 0.01 0.02 0.01 0.00 0.01 0.01 0.03 0.06 0.08 0.02 0.01 0.08 0.29 0.38 0.73 0.82 0.74 0.54 0.84 0.95 0.73 0.38 0.36 0.31
0.00 0.00 0.00 0.01 0.00 0.01 0.06 0.04 0.03 0.08 0.05 0.01 0.03 0.04 0.05 0.08 0.05 0.02 0.01 0.01 0.10 0.29 0.62 1.07 0.96 0.64 0.72 0.80 0.65 0.42 0.30 0.37
0.00 0.00 0.00 0.00 0.00 0.07 0.13 0.12 0.15 0.16 0.07 0.01 0.01 0.04 0.07 0.10 0.12 0.03 0.08 0.03 0.02 0.07 0.23 0.69 0.70 0.67 0.42 0.49 0.23 0.22 0.15 0.26
0.00 0.00 0.00 0.01 0.03 0.02 0.03 0.01 0.01 0.01 0.02 0.03 0.05 0.06 0.05 0.11 0.11 0.11 0.08 0.19 0.08 0.02 0.04 0.27 0.52 0.50 0.54 0.48 0.11 0.05 0.06 0.16
0.00 0.03 0.12 0.12 0.10 0.08 0.07 0.08 0.07 0.04 0.02 0.01 0.06 0.12 0.17 0.13 0.16 0.14 0.08 0.10 0.11 0.09 0.04 0.09 0.26 0.32 0.37 0.36 0.35 0.17 0.14 0.13
0.00 0.00 0.04 0.16 0.16 0.19 0.19 0.17 0.14 0.10 0.04 0.03 0.08 0.23 0.20 0.18 0.23 0.25 0.23 0.16 0.15 0.13 0.06 0.08 0.06 0.16 0.31 0.26 0.27 0.23 0.19 0.22
0.00 0.00 0.01 0.03 0.05 0.07 0.06 0.07 0.07 0.05 0.06 0.08 0.16 0.27 0.16 0.09 0.15 0.15 0.08 0.06 0.05 0.18 0.28 0.19 0.08 0.06 0.09 0.15 0.22 0.21 0.21 0.27
0.00 0.01 0.02 0.02 0.03 0.04 0.03 0.06 0.08 0.05 0.02 0.06 0.08 0.20 0.13 0.10 0.12 0.13 0.05 0.03 0.05 0.07 0.18 0.33 0.35 0.21 0.11 0.08 0.11 0.19 0.22 0.20

GFSFLT2_prec_precacc24_129.txt.gz
Total_Precipitation_Accumulation
0.00 0.00 0.00 0.00 0.00 0.00 0.00 0.00 0.00 0.00 0.00 0.02 0.02 0.01 0.01 0.02 0.00 0.00 0.00 0.01 0.01 0.02 0.08 0.13 0.27 0.26 0.13 0.18 0.25 0.30 0.34 0.84
0.00 0.00 0.00 0.00 0.00 0.00 0.00 0.00 0.00 0.00 0.00 0.01 0.01 0.00 0.02 0.01 0.02 0.00 0.00 0.01 0.00 0.05 0.08 0.09 0.13 0.25 0.43 0.41 0.33 0.26 0.11 0.17
0.00 0.00 0.00 0.00 0.00 0.00 0.00 0.00 0.00 0.00 0.00 0.00 0.02 0.02 0.01 0.00 0.00 0.02 0.10 0.01 0.01 0.03 0.07 0.01 0.07 0.13 0.14 0.17 0.22 0.23 0.14 0.12
0.00 0.00 0.00 0.00 0.00 0.00 0.00 0.00 0.00 0.00 0.00 0.00 0.01 0.02 0.02 0.01 0.03 0.04 0.07 0.06 0.01 0.03 0.01 0.00 0.01 0.01 0.02 0.04 0.07 0.19 0.09 0.16
0.00 0.00 0.00 0.00 0.00 0.00 0.00 0.00 0.00 0.00 0.01 0.02 0.03 0.03 0.05 0.06 0.13 0.08 0.02 0.02 0.04 0.03 0.00 0.00 0.00 0.01 0.05 0.05 0.08 0.14 0.11 0.09
0.00 0.00 0.00 0.00 0.00 0.00 0.00 0.00 0.01 0.00 0.01 0.02 0.02 0.03 0.05 0.06 0.08 0.13 0.04 0.03 0.07 0.02 0.00 0.00 0.01 0.05 0.04 0.10 0.13 0.15 0.13 0.07
0.00 0.00 0.00 0.00 0.00 0.00 0.00 0.00 0.01 0.00 0.00 0.00 0.02 0.03 0.04 0.07 0.07 0.11 0.08 0.10 0.07 0.04 0.02 0.01 0.02 0.06 0.07 0.14 0.11 0.20 0.11 0.12
0.00 0.00 0.00 0.00 0.00 0.00 0.00 0.00 0.00 0.00 0.00 0.00 0.01 0.02 0.04 0.07 0.08 0.05 0.06 0.06 0.08 0.06 0.02 0.01 0.02 0.05 0.11 0.14 0.19 0.23 0.08 0.08
0.00 0.00 0.00 0.00 0.00 0.00 0.00 0.00 0.00 0.00 0.00 0.00 0.00 0.01 0.02 0.04 0.02 0.02 0.02 0.05 0.08 0.10 0.08 0.03 0.06 0.24 0.26 0.23 0.18 0.24 0.12 0.05
0.00 0.00 0.00 0.00 0.00 0.00 0.00 0.00 0.00 0.00 0.00 0.00 0.00 0.01 0.01 0.03 0.02 0.02 0.03 0.05 0.08 0.07 0.04 0.03 0.09 0.34 0.52 0.34 0.29 0.24 0.28 0.07
0.00 0.00 0.00 0.00 0.01 0.01 0.01 0.01 0.00 0.00 0.00 0.00 0.00 0.00 0.01 0.02 0.02 0.02 0.04 0.04 0.02 0.03 0.02 0.01 0.07 0.27 0.57 0.52 0.39 0.29 0.33 0.28
0.00 0.00 0.00 0.00 0.01 0.03 0.01 0.01 0.01 0.01 0.00 0.00 0.00 0.00 0.01 0.01 0.01 0.02 0.04 0.03 0.02 0.01 0.01 0.03 0.11 0.23 0.50 0.65 0.39 0.40 0.33 0.39
0.00 0.00 0.00 0.00 0.01 0.05 0.02 0.01 0.01 0.02 0.00 0.00 0.00 0.00 0.00 0.01 0.02 0.02 0.01 0.01 0.01 0.02 0.04 0.12 0.25 0.30 0.75 0.91 0.69 0.37 0.37 0.31
0.00 0.00 0.00 0.01 0.00 0.02 0.07 0.04 0.03 0.08 0.05 0.01 0.00 0.00 0.00 0.01 0.02 0.00 0.00 0.00 0.01 0.03 0.08 0.22 0.37 0.45 0.68 0.80 0.65 0.42 0.28 0.37
0.00 0.00 0.00 0.02 0.01 0.09 0.16 0.13 0.15 0.15 0.06 0.01 0.01 0.01 0.00 0.01 0.02 0.00 0.00 0.01 0.00 0.01 0.04 0.19 0.34 0.52 0.40 0.50 0.23 0.22 0.14 0.25
0.00 0.01 0.00 0.05 0.18 0.31 0.18 0.04 0.01 0.01 0.01 0.03 0.05 0.06 0.03 0.02 0.02 0.00 0.00 0.00 0.00 0.00 0.01 0.07 0.29 0.43 0.49 0.45 0.10 0.04 0.05 0.15
0.00 0.03 0.13 0.13 0.19 0.48 0.47 0.34 0.16 0.08 0.04 0.03 0.06 0.13 0.17 0.09 0.07 0.05 0.04 0.04 0.04 0.01 0.01 0.04 0.17 0.29 0.35 0.34 0.32 0.16 0.14 0.14
0.01 0.00 0.04 0.17 0.17 0.30 0.55 0.85 1.07 0.92 0.65 0.22 0.10 0.26 0.24 0.19 0.20 0.21 0.22 0.23 0.12 0.04 0.01 0.01 0.04 0.16 0.30 0.25 0.26 0.22 0.20 0.23
0.12 0.05 0.02 0.04 0.06 0.11 0.16 0.25 0.42 0.75 1.20 1.14 0.39 0.31 0.16 0.10 0.16 0.19 0.11 0.07 0.04 0.03 0.04 0.02 0.02 0.05 0.09 0.15 0.22 0.21 0.20 0.25
0.17 0.16 0.12 0.04 0.04 0.07 0.12 0.14 0.16 0.17 0.22 0.40 0.24 0.25 0.17 0.15 0.15 0.20 0.19 0.14 0.06 0.06 0.08 0.07 0.06 0.04 0.04 0.05 0.12 0.20 0.22 0.19

GFSFLT2_prec_precacc24_132.txt.gz
Total_Precipitation_Accumulation
0.00 0.00 0.00 0.00 0.00 0.00 0.00 0.00 0.00 0.00 0.00 0.00 0.00 0.00 0.01 0.02 0.00 0.00 0.00 0.01 0.01 0.02 0.04 0.05 0.09 0.09 0.01 0.09 0.22 0.24 0.30 0.67
0.01 0.00 0.00 0.00 0.00 0.00 0.00 0.00 0.00 0.00 0.00 0.00 0.00 0.00 0.00 0.01 0.02 0.00 0.00 0.01 0.00 0.01 0.01 0.01 0.04 0.11 0.23 0.21 0.21 0.18 0.11 0.17
0.01 0.01 0.00 0.00 0.00 0.00 0.00 0.00 0.00 0.00 0.00 0.00 0.00 0.00 0.00 0.00 0.00 0.02 0.10 0.01 0.01 0.02 0.00 0.00 0.03 0.04 0.05 0.04 0.12 0.22 0.11 0.16
0.00 0.01 0.01 0.00 0.00 0.00 0.00 0.00 0.00 0.00 0.00 0.00 0.00 0.00 0.00 0.00 0.00 0.02 0.08 0.08 0.00 0.00 0.00 0.00 0.01 0.00 0.00 0.01 0.05 0.16 0.09 0.21
0.00 0.00 0.00 0.01 0.00 0.00 0.00 0.00 0.00 0.00 0.00 0.00 0.00 0.00 0.02 0.01 0.05 0.04 0.02 0.02 0.00 0.00 0.00 0.00 0.00 0.00 0.03 0.01 0.02 0.06 0.10 0.11
0.00 0.00 0.00 0.03 0.01 0.00 0.00 0.00 0.00 0.00 0.00 0.00 0.00 0.00 0.02 0.02 0.03 0.10 0.03 0.02 0.03 0.00 0.00 0.00 0.00 0.01 0.03 0.02 0.02 0.07 0.15 0.13
0.00 0.00 0.01 0.02 0.01 0.00 0.00 0.00 0.00 0.00 0.00 0.00 0.00 0.00 0.01 0.02 0.03 0.07 0.05 0.06 0.03 0.01 0.01 0.01 0.01 0.01 0.01 0.00 0.01 0.06 0.09 0.14
0.00 0.00 0.00 0.04 0.15 0.01 0.01 0.00 0.00 0.00 0.00 0.00 0.00 0.00 0.00 0.01 0.04 0.03 0.05 0.05 0.05 0.02 0.01 0.02 0.01 0.01 0.02 0.01 0.01 0.07 0.06 0.10
0.00 0.00 0.00 0.00 0.06 0.09 0.01 0.02 0.00 0.00 0.00 0.00 0.00 0.00 0.00 0.01 0.00 0.02 0.02 0.02 0.04 0.03 0.03 0.02 0.02 0.03 0.03 0.03 0.04 0.14 0.10 0.05
0.00 0.00 0.00 0.00 0.02 0.08 0.03 0.00 0.00 0.00 0.00 0.00 0.00 0.00 0.00 0.01 0.00 0.00 0.01 0.02 0.03 0.03 0.02 0.01 0.02 0.05 0.06 0.08 0.10 0.18 0.26 0.06
0.00 0.00 0.00 0.00 0.06 0.08 0.04 0.04 0.00 0.00 0.00 0.00 0.00 0.00 0.00 0.01 0.00 0.00 0.01 0.01 0.01 0.03 0.02 0.01 0.01 0.03 0.08 0.14 0.20 0.25 0.33 0.28
0.00 0.00 0.00 0.00 0.03 0.16 0.17 0.16 0.09 0.02 0.00 0.00 0.00 0.00 0.00 0.00 0.00 0.00 0.01 0.02 0.01 0.01 0.01 0.01 0.01 0.02 0.06 0.19 0.27 0.40 0.33 0.40
0.00 0.00 0.00 0.00 0.04 0.16 0.16 0.13 0.10 0.10 0.00 0.00 0.00 0.00 0.00 0.00 0.00 0.00 0.00 0.01 0.02 0.02 0.04 0.04 0.05 0.05 0.27 0.40 0.55 0.35 0.37 0.32
0.00 0.00 0.00 0.01 0.00 0.05 0.18 0.21 0.16 0.11 0.06 0.01 0.00 0.00 0.00 0.00 0.00 0.00 0.00 0.01 0.01 0.03 0.05 0.06 0.09 0.13 0.32 0.61 0.57 0.40 0.27 0.36
0.00 0.00 0.00 0.02 0.01 0.15 0.29 0.28 0.32 0.29 0.15 0.01 0.01 0.01 0.00 0.00 0.00 0.00 0.00 0.01 0.01 0.01 0.02 0.03 0.05 0.14 0.25 0.45 0.22 0.21 0.12 0.23
0.00 0.01 0.00 0.05 0.18 0.33 0.31 0.24 0.24 0.10 0.05 0.04 0.05 0.06 0.03 0.01 0.01 0.00 0.00 0.00 0.00 0.01 0.01 0.02 0.04 0.19 0.36 0.39 0.10 0.04 0.04 0.14
0.00 0.03 0.13 0.13 0.19 0.48 0.54 0.49 0.25 0.14 0.10 0.06 0.06 0.13 0.17 0.09 0.06 0.05 0.04 0.05 0.04 0.01 0.01 0.02 0.04 0.10 0.22 0.26 0.26 0.14 0.13 0.13
0.01 0.01 0.05 0.17 0.17 0.31 0.59 0.96 1.33 1.48 1.11 0.57 0.29 0.37 0.31 0.21 0.23 0.23 0.23 0.23 0.13 0.05 0.03 0.01 0.03 0.08 0.19 0.15 0.19 0.18 0.18 0.22
0.14 0.07 0.05 0.05 0.07 0.13 0.19 0.35 0.66 1.14 1.77 2.40 1.88 1.39 0.99 0.68 0.29 0.22 0.14 0.09 0.07 0.04 0.05 0.03 0.04 0.05 0.08 0.14 0.20 0.21 0.20 0.26
0.21 0.20 0.19 0.11 0.09 0.11 0.16 0.19 0.27 0.53 0.57 0.98 1.34 1.55 1.24 1.36 0.65 0.27 0.24 0.20 0.14 0.13 0.09 0.07 0.04 0.04 0.04 0.05 0.13 0.20 0.23 0.20

GFSFLT2_prec_precacc24_138.txt.gz
Total_Precipitation_Accumulation
0.00 0.00 0.00 0.00 0.00 0.00 0.00 0.00 0.00 0.00 0.00 0.00 0.00 0.00 0.00 0.00 0.00 0.00 0.00 0.01 0.01 0.00 0.00 0.00 0.00 0.00 0.00 0.00 0.01 0.01 0.14 0.33
0.01 0.00 0.00 0.00 0.00 0.00 0.00 0.00 0.00 0.00 0.00 0.00 0.00 0.00 0.00 0.00 0.00 0.00 0.00 0.01 0.00 0.00 0.00 0.00 0.02 0.07 0.07 0.04 0.05 0.01 0.07 0.14
0.01 0.02 0.00 0.00 0.01 0.00 0.00 0.00 0.00 0.00 0.00 0.00 0.00 0.00 0.00 0.00 0.00 0.01 0.04 0.01 0.00 0.00 0.00 0.00 0.03 0.02 0.01 0.00 0.04 0.11 0.04 0.16
0.00 0.01 0.02 0.00 0.01 0.01 0.00 0.00 0.00 0.00 0.00 0.00 0.00 0.00 0.00 0.00 0.00 0.02 0.07 0.08 0.00 0.00 0.00 0.00 0.01 0.00 0.00 0.00 0.05 0.15 0.12 0.18
0.00 0.01 0.04 0.05 0.02 0.02 0.01 0.02 0.00 0.00 0.00 0.00 0.00 0.00 0.02 0.01 0.03 0.01 0.01 0.01 0.00 0.00 0.00 0.00 0.00 0.00 0.03 0.01 0.01 0.05 0.10 0.08
0.00 0.02 0.09 0.27 0.27 0.13 0.07 0.05 0.03 0.00 0.00 0.00 0.00 0.00 0.02 0.01 0.03 0.02 0.02 0.02 0.01 0.00 0.00 0.00 0.00 0.00 0.03 0.02 0.02 0.05 0.09 0.11
0.00 0.00 0.04 0.14 0.26 0.40 0.35 0.09 0.10 0.07 0.01 0.00 0.00 0.00 0.01 0.01 0.02 0.02 0.01 0.02 0.01 0.01 0.01 0.01 0.00 0.00 0.01 0.00 0.02 0.05 0.04 0.05
0.00 0.00 0.00 0.05 0.21 0.10 0.26 0.32 0.26 0.19 0.09 0.03 0.00 0.00 0.00 0.01 0.01 0.01 0.01 0.02 0.02 0.02 0.01 0.02 0.01 0.01 0.01 0.00 0.01 0.01 0.00 0.02
0.00 0.00 0.00 0.00 0.07 0.13 0.11 0.30 0.48 0.31 0.17 0.14 0.06 0.02 0.00 0.01 0.00 0.01 0.01 0.01 0.02 0.02 0.03 0.02 0.02 0.02 0.02 0.01 0.00 0.01 0.00 0.00
0.00 0.00 0.00 0.00 0.04 0.18 0.12 0.16 0.35 0.32 0.29 0.15 0.11 0.04 0.02 0.01 0.01 0.00 0.01 0.02 0.01 0.01 0.01 0.01 0.01 0.03 0.03 0.03 0.02 0.00 0.00 0.00
0.00 0.00 0.00 0.00 0.06 0.11 0.12 0.12 0.22 0.22 0.18 0.31 0.33 0.24 0.13 0.04 0.01 0.00 0.00 0.01 0.01 0.00 0.01 0.00 0.01 0.02 0.03 0.04 0.04 0.01 0.02 0.02
0.00 0.00 0.00 0.00 0.03 0.15 0.20 0.30 0.27 0.26 0.31 0.38 0.45 0.41 0.36 0.16 0.04 0.00 0.00 0.00 0.01 0.01 0.00 0.00 0.00 0.01 0.02 0.04 0.04 0.02 0.02 0.03
0.00 0.00 0.00 0.00 0.04 0.14 0.16 0.15 0.16 0.17 0.20 0.32 0.47 0.57 0.54 0.34 0.15 0.04 0.01 0.01 0.01 0.01 0.02 0.02 0.03 0.03 0.08 0.08 0.05 0.02 0.02 0.02
0.00 0.00 0.00 0.01 0.00 0.04 0.14 0.19 0.20 0.16 0.13 0.22 0.35 0.30 0.41 0.54 0.35 0.08 0.02 0.02 0.01 0.02 0.04 0.04 0.06 0.06 0.08 0.07 0.09 0.05 0.02 0.02
0.00 0.00 0.00 0.02 0.01 0.09 0.21 0.22 0.30 0.32 0.25 0.10 0.07 0.20 0.20 0.32 0.36 0.10 0.03 0.02 0.01 0.01 0.01 0.02 0.03 0.05 0.05 0.06 0.04 0.03 0.01 0.02
0.00 0.00 0.00 0.04 0.17 0.33 0.30 0.24 0.25 0.11 0.06 0.10 0.12 0.26 0.27 0.26 0.25 0.16 0.09 0.03 0.01 0.00 0.01 0.02 0.02 0.03 0.06 0.05 0.02 0.01 0.01 0.02
0.00 0.00 0.00 0.02 0.11 0.44 0.53 0.49 0.26 0.15 0.16 0.27 0.30 0.32 0.44 0.40 0.40 0.38 0.30 0.15 0.08 0.03 0.01 0.02 0.03 0.03 0.02 0.02 0.04 0.05 0.05 0.07
0.01 0.01 0.00 0.01 0.05 0.17 0.48 0.90 1.32 1.49 1.21 0.79 0.59 0.67 0.69 0.69 0.62 0.65 0.98 0.78 0.25 0.09 0.05 0.03 0.06 0.05 0.05 0.03 0.02 0.03 0.07 0.15
0.14 0.08 0.05 0.03 0.05 0.11 0.20 0.36 0.65 1.16 1.84 2.57 2.53 2.09 1.83 1.80 1.67 1.38 1.27 1.23 0.73 0.16 0.12 0.08 0.09 0.12 0.07 0.04 0.03 0.04 0.04 0.10
0.22 0.22 0.21 0.12 0.09 0.13 0.22 0.24 0.28 0.56 0.71 1.09 1.97 2.66 2.33 2.57 2.88 3.02 2.41 1.84 1.74 0.82 0.37 0.22 0.12 0.16 0.13 0.07 0.08 0.08 0.07 0.08

GFSFLT2_prec_precacc24_144.txt.gz
Total_Precipitation_Accumulation
0.00 0.00 0.00 0.00 0.00 0.01 0.03 0.04 0.05 0.01 0.00 0.00 0.00 0.00 0.00 0.00 0.00 0.00 0.00 0.00 0.00 0.00 0.00 0.00 0.00 0.00 0.00 0.00 0.00 0.01 0.14 0.33
0.01 0.00 0.00 0.00 0.00 0.00 0.07 0.10 0.09 0.05 0.02 0.00 0.00 0.00 0.00 0.00 0.00 0.00 0.00 0.01 0.00 0.00 0.00 0.00 0.00 0.00 0.00 0.00 0.00 0.00 0.07 0.14
0.01 0.02 0.01 0.00 0.01 0.00 0.04 0.12 0.09 0.09 0.09 0.09 0.03 0.00 0.00 0.00 0.00 0.01 0.04 0.01 0.00 0.00 0.00 0.00 0.00 0.00 0.00 0.00 0.00 0.00 0.04 0.16
0.00 0.01 0.02 0.00 0.01 0.02 0.01 0.05 0.07 0.06 0.06 0.10 0.12 0.05 0.01 0.00 0.00 0.01 0.07 0.08 0.00 0.00 0.00 0.00 0.00 0.00 0.00 0.00 0.00 0.02 0.11 0.19
0.00 0.01 0.04 0.05 0.02 0.02 0.02 0.03 0.03 0.04 0.04 0.04 0.05 0.05 0.04 0.01 0.03 0.00 0.01 0.01 0.00 0.00 0.00 0.00 0.00 0.00 0.03 0.01 0.00 0.04 0.10 0.09
0.00 0.02 0.09 0.27 0.27 0.13 0.09 0.10 0.07 0.02 0.01 0.07 0.07 0.07 0.08 0.04 0.03 0.02 0.02 0.01 0.01 0.00 0.00 0.00 0.00 0.00 0.03 0.02 0.02 0.05 0.09 0.12
0.00 0.00 0.04 0.14 0.26 0.40 0.35 0.12 0.16 0.15 0.07 0.06 0.08 0.09 0.10 0.10 0.05 0.05 0.02 0.02 0.01 0.01 0.00 0.01 0.00 0.00 0.00 0.00 0.02 0.05 0.04 0.05
0.00 0.00 0.00 0.05 0.21 0.10 0.26 0.32 0.28 0.26 0.17 0.09 0.15 0.16 0.15 0.17 0.09 0.05 0.03 0.03 0.02 0.02 0.01 0.02 0.01 0.00 0.01 0.00 0.02 0.01 0.00 0.03
0.00 0.00 0.00 0.00 0.07 0.13 0.11 0.30 0.48 0.33 0.22 0.20 0.14 0.20 0.18 0.22 0.22 0.13 0.02 0.02 0.05 0.03 0.03 0.02 0.02 0.02 0.02 0.01 0.00 0.01 0.00 0.00
0.00 0.00 0.00 0.00 0.04 0.17 0.12 0.16 0.35 0.32 0.30 0.17 0.15 0.10 0.16 0.21 0.28 0.24 0.21 0.08 0.03 0.01 0.02 0.01 0.01 0.03 0.03 0.03 0.02 0.00 0.00 0.00
0.00 0.00 0.00 0.00 0.06 0.10 0.11 0.12 0.22 0.22 0.18 0.32 0.37 0.32 0.32 0.30 0.23 0.27 0.32 0.21 0.04 0.01 0.01 0.00 0.01 0.02 0.03 0.04 0.03 0.01 0.02 0.02
0.00 0.00 0.00 0.00 0.03 0.15 0.20 0.29 0.27 0.26 0.31 0.38 0.47 0.46 0.54 0.54 0.45 0.33 0.34 0.29 0.16 0.04 0.00 0.01 0.01 0.01 0.01 0.02 0.02 0.02 0.02 0.03
0.00 0.00 0.00 0.00 0.04 0.14 0.16 0.15 0.15 0.16 0.20 0.32 0.48 0.59 0.64 0.85 0.85 0.72 0.45 0.33 0.24 0.19 0.09 0.05 0.03 0.04 0.08 0.05 0.03 0.02 0.01 0.01
0.00 0.00 0.00 0.01 0.00 0.04 0.13 0.18 0.17 0.10 0.09 0.22 0.35 0.30 0.43 0.67 0.86 0.97 1.16 0.85 0.57 0.40 0.35 0.14 0.06 0.08 0.07 0.04 0.04 0.02 0.01 0.00
0.00 0.00 0.00 0.02 0.01 0.09 0.19 0.17 0.18 0.19 0.19 0.09 0.07 0.20 0.21 0.36 0.67 0.71 0.66 0.82 0.94 0.99 1.05 0.81 0.24 0.09 0.12 0.05 0.03 0.02 0.00 0.00
0.00 0.00 0.00 0.04 0.15 0.32 0.28 0.23 0.25 0.11 0.05 0.09 0.11 0.24 0.28 0.28 0.34 0.38 0.67 0.84 0.56 0.70 0.56 0.71 0.51 0.14 0.16 0.11 0.03 0.00 0.00 0.00
0.00 0.00 0.00 0.01 0.09 0.41 0.48 0.42 0.21 0.13 0.16 0.28 0.28 0.25 0.37 0.40 0.43 0.44 0.51 0.57 0.56 0.54 0.35 0.25 0.27 0.30 0.13 0.11 0.10 0.03 0.01 0.01
0.01 0.01 0.00 0.00 0.01 0.13 0.42 0.81 1.21 1.41 1.18 0.78 0.54 0.51 0.59 0.66 0.62 0.67 1.08 1.19 0.87 0.59 0.80 0.69 0.50 0.35 0.28 0.29 0.17 0.06 0.03 0.02
0.14 0.07 0.04 0.02 0.03 0.07 0.17 0.32 0.62 1.13 1.80 2.51 2.41 1.92 1.72 1.77 1.62 1.38 1.32 1.42 1.72 1.02 0.83 1.12 1.36 0.97 0.64 0.39 0.31 0.23 0.14 0.09
0.22 0.22 0.21 0.13 0.09 0.13 0.22 0.22 0.27 0.55 0.72 1.07 1.95 2.58 2.28 2.56 2.86 3.01 2.45 1.93 2.08 1.99 1.35 1.19 1.60 1.81 1.40 0.84 0.54 0.55 0.48 0.36